Wetterdaten: Samstag, 23.07.2016
Datum Zeit Temp. A. Feuchte A. Luftdruck Regen Wind Richtung Richtung Sonnenschein ET UV Solar Taupunkt Windchill Windben Empfang
23.07.2016 00:00 18,1 C 95 % 1013,6 hPa 0,0 l/m 0,6 km/h (0 Bft) O 96 0 min 0,000 mm 0,0 UV-I 0 W/m 17,3 C 18,1 C 3,2 km/h (1 Bft) 96,00 %
23.07.2016 00:02 18,1 C 95 % 1013,6 hPa 0,0 l/m 0,8 km/h (0 Bft) O 96 0 min 0,000 mm 0,0 UV-I 0 W/m 17,3 C 18,1 C 4,8 km/h (1 Bft) 97,14 %
23.07.2016 00:04 18,2 C 95 % 1013,6 hPa 0,0 l/m 0,9 km/h (0 Bft) O 96 0 min 0,000 mm 0,0 UV-I 0 W/m 17,4 C 18,2 C 3,2 km/h (1 Bft) 97,87 %
23.07.2016 00:06 18,2 C 95 % 1013,6 hPa 0,0 l/m 0,1 km/h (0 Bft) O 96 0 min 0,000 mm 0,0 UV-I 0 W/m 17,4 C 18,2 C 1,6 km/h (1 Bft) 97,87 %
23.07.2016 00:08 18,2 C 95 % 1013,7 hPa 0,0 l/m 0,7 km/h (0 Bft) O 96 0 min 0,000 mm 0,0 UV-I 0 W/m 17,4 C 18,2 C 3,2 km/h (1 Bft) 95,74 %
23.07.2016 00:10 18,1 C 95 % 1013,7 hPa 0,0 l/m 1,7 km/h (1 Bft) O 96 0 min 0,000 mm 0,0 UV-I 0 W/m 17,3 C 18,1 C 4,8 km/h (1 Bft) 96,23 %
23.07.2016 00:12 18,1 C 95 % 1013,7 hPa 0,0 l/m 2,8 km/h (1 Bft) O 96 0 min 0,000 mm 0,0 UV-I 0 W/m 17,3 C 18,1 C 6,4 km/h (2 Bft) 95,74 %
23.07.2016 00:14 18,1 C 95 % 1013,7 hPa 0,0 l/m 2,7 km/h (1 Bft) O 96 0 min 0,000 mm 0,0 UV-I 0 W/m 17,3 C 18,1 C 4,8 km/h (1 Bft) 97,44 %
23.07.2016 00:16 18,1 C 95 % 1013,7 hPa 0,0 l/m 2,1 km/h (1 Bft) O 96 0 min 0,000 mm 0,0 UV-I 0 W/m 17,3 C 18,1 C 4,8 km/h (1 Bft) 98,18 %
23.07.2016 00:18 18,1 C 95 % 1013,8 hPa 0,0 l/m 0,3 km/h (0 Bft) O 96 0 min 0,000 mm 0,0 UV-I 0 W/m 17,3 C 18,1 C 1,6 km/h (1 Bft) 98,00 %
23.07.2016 00:20 18,1 C 95 % 1013,7 hPa 0,0 l/m 0,0 km/h (0 Bft) O 96 0 min 0,000 mm 0,0 UV-I 0 W/m 17,3 C 18,1 C 0,0 km/h (0 Bft) 97,22 %
23.07.2016 00:22 18,1 C 95 % 1013,7 hPa 0,0 l/m 1,1 km/h (1 Bft) O 96 0 min 0,000 mm 0,0 UV-I 0 W/m 17,3 C 18,1 C 3,2 km/h (1 Bft) 96,23 %
23.07.2016 00:24 18,2 C 95 % 1013,7 hPa 0,0 l/m 1,4 km/h (1 Bft) O 96 0 min 0,000 mm 0,0 UV-I 0 W/m 17,4 C 18,2 C 3,2 km/h (1 Bft) 98,00 %
23.07.2016 00:26 18,1 C 95 % 1013,7 hPa 0,0 l/m 0,0 km/h (0 Bft) O 96 0 min 0,000 mm 0,0 UV-I 0 W/m 17,3 C 18,1 C 0,0 km/h (0 Bft) 97,87 %
23.07.2016 00:28 18,1 C 95 % 1013,7 hPa 0,0 l/m 0,0 km/h (0 Bft) O 96 0 min 0,000 mm 0,0 UV-I 0 W/m 17,3 C 18,1 C 0,0 km/h (0 Bft) 97,56 %
23.07.2016 00:30 18,0 C 95 % 1013,7 hPa 0,0 l/m 0,0 km/h (0 Bft) O 96 0 min 0,000 mm 0,0 UV-I 0 W/m 17,2 C 18,0 C 0,0 km/h (0 Bft) 100,00 %
23.07.2016 00:32 18,0 C 95 % 1013,7 hPa 0,0 l/m 0,0 km/h (0 Bft) O 96 0 min 0,000 mm 0,0 UV-I 0 W/m 17,2 C 18,0 C 0,0 km/h (0 Bft) 100,00 %
23.07.2016 00:34 17,9 C 95 % 1013,7 hPa 0,0 l/m 0,0 km/h (0 Bft) O 96 0 min 0,000 mm 0,0 UV-I 0 W/m 17,1 C 17,9 C 0,0 km/h (0 Bft) 97,87 %
23.07.2016 00:36 17,9 C 95 % 1013,7 hPa 0,0 l/m 0,0 km/h (0 Bft) O 96 0 min 0,000 mm 0,0 UV-I 0 W/m 17,1 C 17,9 C 0,0 km/h (0 Bft) 100,00 %
23.07.2016 00:38 17,9 C 95 % 1013,8 hPa 0,0 l/m 0,0 km/h (0 Bft) O 96 0 min 0,000 mm 0,0 UV-I 0 W/m 17,1 C 17,9 C 0,0 km/h (0 Bft) 100,00 %
23.07.2016 00:40 18,0 C 95 % 1013,8 hPa 0,0 l/m 0,0 km/h (0 Bft) O 96 0 min 0,000 mm 0,0 UV-I 0 W/m 17,2 C 18,0 C 0,0 km/h (0 Bft) 97,87 %
23.07.2016 00:42 18,1 C 95 % 1013,7 hPa 0,0 l/m 0,0 km/h (0 Bft) O 96 0 min 0,000 mm 0,0 UV-I 0 W/m 17,3 C 18,1 C 0,0 km/h (0 Bft) 97,37 %
23.07.2016 00:44 18,1 C 95 % 1013,7 hPa 0,0 l/m 0,0 km/h (0 Bft) O 96 0 min 0,000 mm 0,0 UV-I 0 W/m 17,3 C 18,1 C 0,0 km/h (0 Bft) 98,00 %
23.07.2016 00:46 18,1 C 95 % 1013,7 hPa 0,0 l/m 1,6 km/h (1 Bft) O 96 0 min 0,000 mm 0,0 UV-I 0 W/m 17,3 C 18,1 C 3,2 km/h (1 Bft) 100,00 %
23.07.2016 00:48 18,1 C 95 % 1013,7 hPa 0,0 l/m 1,4 km/h (1 Bft) O 96 0 min 0,000 mm 0,0 UV-I 0 W/m 17,3 C 18,1 C 3,2 km/h (1 Bft) 100,00 %
23.07.2016 00:50 18,1 C 95 % 1013,7 hPa 0,0 l/m 0,0 km/h (0 Bft) O 96 0 min 0,000 mm 0,0 UV-I 0 W/m 17,3 C 18,1 C 0,0 km/h (0 Bft) 98,00 %
23.07.2016 00:52 18,1 C 95 % 1013,6 hPa 0,0 l/m 0,0 km/h (0 Bft) O 96 0 min 0,000 mm 0,0 UV-I 0 W/m 17,3 C 18,1 C 0,0 km/h (0 Bft) 100,00 %
23.07.2016 00:54 18,1 C 95 % 1013,6 hPa 0,0 l/m 1,9 km/h (1 Bft) O 96 0 min 0,000 mm 0,0 UV-I 0 W/m 17,3 C 18,1 C 3,2 km/h (1 Bft) 98,00 %
23.07.2016 00:56 18,1 C 95 % 1013,6 hPa 0,0 l/m 0,3 km/h (0 Bft) O 96 0 min 0,000 mm 0,0 UV-I 0 W/m 17,3 C 18,1 C 1,6 km/h (1 Bft) 100,00 %
23.07.2016 00:58 18,0 C 95 % 1013,5 hPa 0,0 l/m 0,2 km/h (0 Bft) O 96 0 min 0,000 mm 0,0 UV-I 0 W/m 17,2 C 18,0 C 1,6 km/h (1 Bft) 100,00 %
23.07.2016 01:00 18,0 C 95 % 1013,6 hPa 0,0 l/m 0,0 km/h (0 Bft) O 96 0 min 0,000 mm 0,0 UV-I 0 W/m 17,2 C 18,0 C 1,6 km/h (1 Bft) 97,92 %
23.07.2016 01:02 18,0 C 95 % 1013,6 hPa 0,0 l/m 0,7 km/h (0 Bft) O-SO 116 0 min 0,000 mm 0,0 UV-I 0 W/m 17,2 C 18,0 C 3,2 km/h (1 Bft) 97,37 %
23.07.2016 01:04 17,9 C 95 % 1013,6 hPa 0,0 l/m 0,6 km/h (0 Bft) O-SO 116 0 min 0,000 mm 0,0 UV-I 0 W/m 17,1 C 17,9 C 1,6 km/h (1 Bft) 98,00 %
23.07.2016 01:06 17,9 C 95 % 1013,7 hPa 0,0 l/m 1,8 km/h (1 Bft) O-SO 116 0 min 0,000 mm 0,0 UV-I 0 W/m 17,1 C 17,9 C 3,2 km/h (1 Bft) 97,87 %
23.07.2016 01:08 17,9 C 95 % 1013,8 hPa 0,0 l/m 2,7 km/h (1 Bft) S-SO 148 0 min 0,000 mm 0,0 UV-I 0 W/m 17,1 C 17,9 C 3,2 km/h (1 Bft) 100,00 %
23.07.2016 01:10 17,9 C 95 % 1013,8 hPa 0,0 l/m 3,9 km/h (1 Bft) S-SO 166 0 min 0,000 mm 0,0 UV-I 0 W/m 17,1 C 17,9 C 6,4 km/h (2 Bft) 100,00 %
23.07.2016 01:12 17,8 C 95 % 1013,9 hPa 0,0 l/m 5,6 km/h (1 Bft) S-SO 167 0 min 0,000 mm 0,0 UV-I 0 W/m 17,0 C 17,8 C 6,4 km/h (2 Bft) 97,14 %
23.07.2016 01:14 17,8 C 95 % 1013,9 hPa 0,0 l/m 4,6 km/h (1 Bft) S-SO 167 0 min 0,000 mm 0,0 UV-I 0 W/m 17,0 C 17,8 C 6,4 km/h (2 Bft) 100,00 %
23.07.2016 01:16 17,8 C 95 % 1013,9 hPa 0,0 l/m 5,5 km/h (1 Bft) S-SO 166 0 min 0,000 mm 0,0 UV-I 0 W/m 17,0 C 17,8 C 6,4 km/h (2 Bft) 100,00 %
23.07.2016 01:18 17,8 C 96 % 1013,9 hPa 0,0 l/m 3,5 km/h (1 Bft) S 186 0 min 0,000 mm 0,0 UV-I 0 W/m 17,2 C 17,8 C 6,4 km/h (2 Bft) 98,00 %
23.07.2016 01:20 17,8 C 95 % 1013,8 hPa 0,0 l/m 1,7 km/h (1 Bft) S 186 0 min 0,000 mm 0,0 UV-I 0 W/m 17,0 C 17,8 C 3,2 km/h (1 Bft) 97,56 %
23.07.2016 01:22 17,8 C 96 % 1013,8 hPa 0,0 l/m 0,0 km/h (0 Bft) S 186 0 min 0,000 mm 0,0 UV-I 0 W/m 17,2 C 17,8 C 0,0 km/h (0 Bft) 100,00 %
23.07.2016 01:24 17,8 C 96 % 1013,9 hPa 0,0 l/m 0,4 km/h (0 Bft) S 186 0 min 0,000 mm 0,0 UV-I 0 W/m 17,2 C 17,8 C 1,6 km/h (1 Bft) 97,87 %
23.07.2016 01:26 17,8 C 96 % 1013,8 hPa 0,0 l/m 0,0 km/h (0 Bft) S 186 0 min 0,000 mm 0,0 UV-I 0 W/m 17,2 C 17,8 C 0,0 km/h (0 Bft) 100,00 %
23.07.2016 01:28 17,8 C 96 % 1013,7 hPa 0,0 l/m 1,4 km/h (1 Bft) S 186 0 min 0,000 mm 0,0 UV-I 0 W/m 17,2 C 17,8 C 3,2 km/h (1 Bft) 100,00 %
23.07.2016 01:30 17,7 C 95 % 1013,7 hPa 0,0 l/m 0,9 km/h (0 Bft) S 186 0 min 0,000 mm 0,0 UV-I 0 W/m 16,9 C 17,7 C 1,6 km/h (1 Bft) 100,00 %
23.07.2016 01:32 17,7 C 96 % 1013,8 hPa 0,0 l/m 0,3 km/h (0 Bft) S 186 0 min 0,000 mm 0,0 UV-I 0 W/m 17,1 C 17,7 C 1,6 km/h (1 Bft) 100,00 %
23.07.2016 01:34 17,7 C 96 % 1013,8 hPa 0,0 l/m 0,5 km/h (0 Bft) S 186 0 min 0,000 mm 0,0 UV-I 0 W/m 17,1 C 17,7 C 1,6 km/h (1 Bft) 100,00 %
23.07.2016 01:36 17,7 C 96 % 1013,8 hPa 0,0 l/m 0,2 km/h (0 Bft) S 186 0 min 0,000 mm 0,0 UV-I 0 W/m 17,1 C 17,7 C 1,6 km/h (1 Bft) 100,00 %
23.07.2016 01:38 17,7 C 96 % 1013,7 hPa 0,0 l/m 0,0 km/h (0 Bft) S 186 0 min 0,000 mm 0,0 UV-I 0 W/m 17,1 C 17,7 C 0,0 km/h (0 Bft) 100,00 %
23.07.2016 01:40 17,7 C 96 % 1013,8 hPa 0,0 l/m 0,6 km/h (0 Bft) S 186 0 min 0,000 mm 0,0 UV-I 0 W/m 17,1 C 17,7 C 3,2 km/h (1 Bft) 100,00 %
23.07.2016 01:42 17,7 C 96 % 1013,8 hPa 0,0 l/m 1,7 km/h (1 Bft) S 186 0 min 0,000 mm 0,0 UV-I 0 W/m 17,1 C 17,7 C 3,2 km/h (1 Bft) 100,00 %
23.07.2016 01:44 17,7 C 96 % 1013,9 hPa 0,0 l/m 0,5 km/h (0 Bft) S 186 0 min 0,000 mm 0,0 UV-I 0 W/m 17,1 C 17,7 C 1,6 km/h (1 Bft) 100,00 %
23.07.2016 01:46 17,8 C 96 % 1013,9 hPa 0,0 l/m 0,0 km/h (0 Bft) S 186 0 min 0,000 mm 0,0 UV-I 0 W/m 17,2 C 17,8 C 0,0 km/h (0 Bft) 100,00 %
23.07.2016 01:48 17,8 C 96 % 1013,9 hPa 0,0 l/m 0,2 km/h (0 Bft) S 186 0 min 0,000 mm 0,0 UV-I 0 W/m 17,2 C 17,8 C 1,6 km/h (1 Bft) 100,00 %
23.07.2016 01:50 17,7 C 96 % 1013,9 hPa 0,0 l/m 1,4 km/h (1 Bft) S 186 0 min 0,000 mm 0,0 UV-I 0 W/m 17,1 C 17,7 C 1,6 km/h (1 Bft) 98,00 %
23.07.2016 01:52 17,7 C 96 % 1013,9 hPa 0,0 l/m 0,8 km/h (0 Bft) S 186 0 min 0,000 mm 0,0 UV-I 0 W/m 17,1 C 17,7 C 1,6 km/h (1 Bft) 98,04 %
23.07.2016 01:54 17,8 C 96 % 1013,9 hPa 0,0 l/m 0,0 km/h (0 Bft) S 186 0 min 0,000 mm 0,0 UV-I 0 W/m 17,2 C 17,8 C 1,6 km/h (1 Bft) 95,74 %
23.07.2016 01:56 17,8 C 96 % 1013,8 hPa 0,0 l/m 0,0 km/h (0 Bft) S 186 0 min 0,000 mm 0,0 UV-I 0 W/m 17,2 C 17,8 C 1,6 km/h (1 Bft) 97,56 %
23.07.2016 01:58 17,8 C 96 % 1013,9 hPa 0,0 l/m 0,0 km/h (0 Bft) S 186 0 min 0,000 mm 0,0 UV-I 0 W/m 17,2 C 17,8 C 0,0 km/h (0 Bft) 97,87 %
23.07.2016 02:00 17,7 C 96 % 1013,9 hPa 0,0 l/m 0,0 km/h (0 Bft) S 186 0 min 0,000 mm 0,0 UV-I 0 W/m 17,1 C 17,7 C 0,0 km/h (0 Bft) 97,87 %
23.07.2016 02:02 17,7 C 96 % 1013,8 hPa 0,0 l/m 0,0 km/h (0 Bft) S 186 0 min 0,000 mm 0,0 UV-I 0 W/m 17,1 C 17,7 C 0,0 km/h (0 Bft) 97,92 %
23.07.2016 02:04 17,7 C 96 % 1013,8 hPa 0,0 l/m 0,0 km/h (0 Bft) S 186 0 min 0,000 mm 0,0 UV-I 0 W/m 17,1 C 17,7 C 0,0 km/h (0 Bft) 96,00 %
23.07.2016 02:06 17,7 C 96 % 1013,8 hPa 0,0 l/m 0,2 km/h (0 Bft) S 186 0 min 0,000 mm 0,0 UV-I 0 W/m 17,1 C 17,7 C 1,6 km/h (1 Bft) 98,00 %
23.07.2016 02:08 17,7 C 96 % 1013,9 hPa 0,0 l/m 2,2 km/h (1 Bft) S 186 0 min 0,000 mm 0,0 UV-I 0 W/m 17,1 C 17,7 C 3,2 km/h (1 Bft) 97,22 %
23.07.2016 02:10 17,7 C 96 % 1013,9 hPa 0,0 l/m 1,8 km/h (1 Bft) S 186 0 min 0,000 mm 0,0 UV-I 0 W/m 17,1 C 17,7 C 3,2 km/h (1 Bft) 96,15 %
23.07.2016 02:12 17,7 C 96 % 1013,9 hPa 0,0 l/m 1,2 km/h (1 Bft) S 186 0 min 0,000 mm 0,0 UV-I 0 W/m 17,1 C 17,7 C 3,2 km/h (1 Bft) 95,74 %
23.07.2016 02:14 17,7 C 96 % 1013,9 hPa 0,0 l/m 0,6 km/h (0 Bft) S 186 0 min 0,000 mm 0,0 UV-I 0 W/m 17,1 C 17,7 C 1,6 km/h (1 Bft) 95,83 %
23.07.2016 02:16 17,8 C 96 % 1013,8 hPa 0,0 l/m 1,5 km/h (1 Bft) S 186 0 min 0,000 mm 0,0 UV-I 0 W/m 17,2 C 17,8 C 3,2 km/h (1 Bft) 97,87 %
23.07.2016 02:18 17,8 C 96 % 1013,7 hPa 0,0 l/m 2,2 km/h (1 Bft) S 186 0 min 0,000 mm 0,0 UV-I 0 W/m 17,2 C 17,8 C 3,2 km/h (1 Bft) 93,62 %
23.07.2016 02:20 17,8 C 96 % 1013,6 hPa 0,0 l/m 1,5 km/h (1 Bft) S 186 0 min 0,000 mm 0,0 UV-I 0 W/m 17,2 C 17,8 C 3,2 km/h (1 Bft) 98,00 %
23.07.2016 02:22 17,8 C 96 % 1013,6 hPa 0,0 l/m 0,5 km/h (0 Bft) S 186 0 min 0,000 mm 0,0 UV-I 0 W/m 17,2 C 17,8 C 1,6 km/h (1 Bft) 98,00 %
23.07.2016 02:24 17,8 C 96 % 1013,6 hPa 0,0 l/m 0,0 km/h (0 Bft) S 186 0 min 0,000 mm 0,0 UV-I 0 W/m 17,2 C 17,8 C 1,6 km/h (1 Bft) 92,11 %
23.07.2016 02:26 17,8 C 96 % 1013,7 hPa 0,0 l/m 0,1 km/h (0 Bft) S 186 0 min 0,000 mm 0,0 UV-I 0 W/m 17,2 C 17,8 C 1,6 km/h (1 Bft) 98,00 %
23.07.2016 02:28 17,8 C 96 % 1013,7 hPa 0,0 l/m 0,4 km/h (0 Bft) S 186 0 min 0,000 mm 0,0 UV-I 0 W/m 17,2 C 17,8 C 1,6 km/h (1 Bft) 98,00 %
23.07.2016 02:30 17,8 C 96 % 1013,7 hPa 0,0 l/m 0,0 km/h (0 Bft) S 186 0 min 0,000 mm 0,0 UV-I 0 W/m 17,2 C 17,8 C 1,6 km/h (1 Bft) 97,87 %
23.07.2016 02:32 17,8 C 96 % 1013,7 hPa 0,0 l/m 0,0 km/h (0 Bft) S 186 0 min 0,000 mm 0,0 UV-I 0 W/m 17,2 C 17,8 C 0,0 km/h (0 Bft) 100,00 %
23.07.2016 02:34 17,8 C 96 % 1013,7 hPa 0,0 l/m 0,7 km/h (0 Bft) S 186 0 min 0,000 mm 0,0 UV-I 0 W/m 17,2 C 17,8 C 1,6 km/h (1 Bft) 100,00 %
23.07.2016 02:36 17,7 C 96 % 1013,7 hPa 0,0 l/m 1,9 km/h (1 Bft) S 186 0 min 0,000 mm 0,0 UV-I 0 W/m 17,1 C 17,7 C 3,2 km/h (1 Bft) 100,00 %
23.07.2016 02:38 17,7 C 96 % 1013,7 hPa 0,0 l/m 1,1 km/h (1 Bft) S 186 0 min 0,000 mm 0,0 UV-I 0 W/m 17,1 C 17,7 C 3,2 km/h (1 Bft) 100,00 %
23.07.2016 02:40 17,7 C 96 % 1013,6 hPa 0,0 l/m 0,0 km/h (0 Bft) S 186 0 min 0,000 mm 0,0 UV-I 0 W/m 17,1 C 17,7 C 0,0 km/h (0 Bft) 97,87 %
23.07.2016 02:42 17,7 C 96 % 1013,6 hPa 0,0 l/m 0,8 km/h (0 Bft) S 186 0 min 0,000 mm 0,0 UV-I 0 W/m 17,1 C 17,7 C 1,6 km/h (1 Bft) 100,00 %
23.07.2016 02:44 17,7 C 96 % 1013,6 hPa 0,0 l/m 2,2 km/h (1 Bft) S 186 0 min 0,000 mm 0,0 UV-I 0 W/m 17,1 C 17,7 C 3,2 km/h (1 Bft) 98,00 %
23.07.2016 02:46 17,7 C 96 % 1013,6 hPa 0,0 l/m 1,9 km/h (1 Bft) S 186 0 min 0,000 mm 0,0 UV-I 0 W/m 17,1 C 17,7 C 3,2 km/h (1 Bft) 100,00 %
23.07.2016 02:48 17,7 C 96 % 1013,6 hPa 0,0 l/m 0,5 km/h (0 Bft) S 186 0 min 0,000 mm 0,0 UV-I 0 W/m 17,1 C 17,7 C 1,6 km/h (1 Bft) 100,00 %
23.07.2016 02:50 17,7 C 96 % 1013,6 hPa 0,0 l/m 0,0 km/h (0 Bft) S 186 0 min 0,000 mm 0,0 UV-I 0 W/m 17,1 C 17,7 C 0,0 km/h (0 Bft) 100,00 %
23.07.2016 02:52 17,7 C 96 % 1013,7 hPa 0,0 l/m 0,0 km/h (0 Bft) S 186 0 min 0,000 mm 0,0 UV-I 0 W/m 17,1 C 17,7 C 0,0 km/h (0 Bft) 100,00 %
23.07.2016 02:54 17,8 C 96 % 1013,7 hPa 0,0 l/m 0,0 km/h (0 Bft) S 186 0 min 0,000 mm 0,0 UV-I 0 W/m 17,2 C 17,8 C 1,6 km/h (1 Bft) 100,00 %
23.07.2016 02:56 17,8 C 96 % 1013,7 hPa 0,0 l/m 0,1 km/h (0 Bft) S 186 0 min 0,000 mm 0,0 UV-I 0 W/m 17,2 C 17,8 C 1,6 km/h (1 Bft) 100,00 %
23.07.2016 02:58 17,8 C 96 % 1013,7 hPa 0,0 l/m 0,7 km/h (0 Bft) S 186 0 min 0,000 mm 0,0 UV-I 0 W/m 17,2 C 17,8 C 1,6 km/h (1 Bft) 97,37 %
23.07.2016 03:00 17,8 C 95 % 1013,6 hPa 0,0 l/m 0,3 km/h (0 Bft) S 186 0 min 0,000 mm 0,0 UV-I 0 W/m 17,0 C 17,8 C 1,6 km/h (1 Bft) 100,00 %
23.07.2016 03:02 17,8 C 95 % 1013,7 hPa 0,0 l/m 0,0 km/h (0 Bft) S 186 0 min 0,000 mm 0,0 UV-I 0 W/m 17,0 C 17,8 C 0,0 km/h (0 Bft) 97,87 %
23.07.2016 03:04 17,8 C 95 % 1013,7 hPa 0,0 l/m 0,5 km/h (0 Bft) S 186 0 min 0,000 mm 0,0 UV-I 0 W/m 17,0 C 17,8 C 3,2 km/h (1 Bft) 95,74 %
23.07.2016 03:06 17,8 C 96 % 1013,7 hPa 0,0 l/m 2,2 km/h (1 Bft) S 186 0 min 0,000 mm 0,0 UV-I 0 W/m 17,2 C 17,8 C 3,2 km/h (1 Bft) 100,00 %
23.07.2016 03:08 17,8 C 95 % 1013,7 hPa 0,0 l/m 2,2 km/h (1 Bft) S 186 0 min 0,000 mm 0,0 UV-I 0 W/m 17,0 C 17,8 C 3,2 km/h (1 Bft) 100,00 %
23.07.2016 03:10 17,8 C 95 % 1013,7 hPa 0,0 l/m 2,8 km/h (1 Bft) S 186 0 min 0,000 mm 0,0 UV-I 0 W/m 17,0 C 17,8 C 3,2 km/h (1 Bft) 98,00 %
23.07.2016 03:12 17,8 C 95 % 1013,8 hPa 0,0 l/m 2,4 km/h (1 Bft) S 186 0 min 0,000 mm 0,0 UV-I 0 W/m 17,0 C 17,8 C 3,2 km/h (1 Bft) 100,00 %
23.07.2016 03:14 17,8 C 95 % 1013,8 hPa 0,0 l/m 1,6 km/h (1 Bft) S 186 0 min 0,000 mm 0,0 UV-I 0 W/m 17,0 C 17,8 C 3,2 km/h (1 Bft) 100,00 %
23.07.2016 03:16 17,8 C 95 % 1013,8 hPa 0,0 l/m 1,7 km/h (1 Bft) S 186 0 min 0,000 mm 0,0 UV-I 0 W/m 17,0 C 17,8 C 3,2 km/h (1 Bft) 100,00 %
23.07.2016 03:18 17,8 C 95 % 1013,8 hPa 0,0 l/m 0,1 km/h (0 Bft) S 186 0 min 0,000 mm 0,0 UV-I 0 W/m 17,0 C 17,8 C 1,6 km/h (1 Bft) 100,00 %
23.07.2016 03:20 17,8 C 95 % 1013,9 hPa 0,0 l/m 0,0 km/h (0 Bft) S 186 0 min 0,000 mm 0,0 UV-I 0 W/m 17,0 C 17,8 C 0,0 km/h (0 Bft) 100,00 %
23.07.2016 03:22 17,8 C 95 % 1013,8 hPa 0,0 l/m 0,0 km/h (0 Bft) S 186 0 min 0,000 mm 0,0 UV-I 0 W/m 17,0 C 17,8 C 0,0 km/h (0 Bft) 100,00 %
23.07.2016 03:24 17,8 C 95 % 1013,8 hPa 0,0 l/m 0,0 km/h (0 Bft) S 186 0 min 0,000 mm 0,0 UV-I 0 W/m 17,0 C 17,8 C 0,0 km/h (0 Bft) 100,00 %
23.07.2016 03:26 17,8 C 95 % 1013,9 hPa 0,0 l/m 0,0 km/h (0 Bft) S 186 0 min 0,000 mm 0,0 UV-I 0 W/m 17,0 C 17,8 C 0,0 km/h (0 Bft) 98,00 %
23.07.2016 03:28 17,8 C 95 % 1013,8 hPa 0,0 l/m 0,0 km/h (0 Bft) S 186 0 min 0,000 mm 0,0 UV-I 0 W/m 17,0 C 17,8 C 0,0 km/h (0 Bft) 97,87 %
23.07.2016 03:30 17,8 C 95 % 1013,8 hPa 0,0 l/m 0,0 km/h (0 Bft) S 186 0 min 0,000 mm 0,0 UV-I 0 W/m 17,0 C 17,8 C 0,0 km/h (0 Bft) 100,00 %
23.07.2016 03:32 17,8 C 95 % 1013,8 hPa 0,0 l/m 0,0 km/h (0 Bft) S 186 0 min 0,000 mm 0,0 UV-I 0 W/m 17,0 C 17,8 C 0,0 km/h (0 Bft) 97,87 %
23.07.2016 03:34 17,8 C 95 % 1013,7 hPa 0,0 l/m 0,0 km/h (0 Bft) S 186 0 min 0,000 mm 0,0 UV-I 0 W/m 17,0 C 17,8 C 0,0 km/h (0 Bft) 100,00 %
23.07.2016 03:36 17,8 C 95 % 1013,8 hPa 0,0 l/m 0,0 km/h (0 Bft) S 186 0 min 0,000 mm 0,0 UV-I 0 W/m 17,0 C 17,8 C 0,0 km/h (0 Bft) 100,00 %
23.07.2016 03:38 17,8 C 95 % 1013,7 hPa 0,0 l/m 0,0 km/h (0 Bft) S 186 0 min 0,000 mm 0,0 UV-I 0 W/m 17,0 C 17,8 C 0,0 km/h (0 Bft) 100,00 %
23.07.2016 03:40 17,8 C 95 % 1013,8 hPa 0,0 l/m 0,0 km/h (0 Bft) S 186 0 min 0,000 mm 0,0 UV-I 0 W/m 17,0 C 17,8 C 0,0 km/h (0 Bft) 100,00 %
23.07.2016 03:42 17,8 C 95 % 1013,8 hPa 0,0 l/m 1,8 km/h (1 Bft) S 186 0 min 0,000 mm 0,0 UV-I 0 W/m 17,0 C 17,8 C 3,2 km/h (1 Bft) 100,00 %
23.07.2016 03:44 17,8 C 95 % 1013,8 hPa 0,0 l/m 1,3 km/h (1 Bft) S 186 0 min 0,000 mm 0,0 UV-I 0 W/m 17,0 C 17,8 C 3,2 km/h (1 Bft) 100,00 %
23.07.2016 03:46 17,8 C 95 % 1013,7 hPa 0,0 l/m 0,2 km/h (0 Bft) S 186 0 min 0,000 mm 0,0 UV-I 0 W/m 17,0 C 17,8 C 1,6 km/h (1 Bft) 97,87 %
23.07.2016 03:48 17,8 C 95 % 1013,9 hPa 0,0 l/m 0,0 km/h (0 Bft) S 186 0 min 0,000 mm 0,0 UV-I 0 W/m 17,0 C 17,8 C 0,0 km/h (0 Bft) 97,87 %
23.07.2016 03:50 17,8 C 96 % 1013,9 hPa 0,0 l/m 0,0 km/h (0 Bft) S 186 0 min 0,000 mm 0,0 UV-I 0 W/m 17,2 C 17,8 C 0,0 km/h (0 Bft) 97,87 %
23.07.2016 03:52 17,8 C 95 % 1013,9 hPa 0,0 l/m 0,0 km/h (0 Bft) S 186 0 min 0,000 mm 0,0 UV-I 0 W/m 17,0 C 17,8 C 0,0 km/h (0 Bft) 96,00 %
23.07.2016 03:54 17,8 C 96 % 1013,8 hPa 0,0 l/m 0,0 km/h (0 Bft) S 186 0 min 0,000 mm 0,0 UV-I 0 W/m 17,2 C 17,8 C 0,0 km/h (0 Bft) 96,00 %
23.07.2016 03:56 17,8 C 95 % 1013,9 hPa 0,0 l/m 0,0 km/h (0 Bft) S 186 0 min 0,000 mm 0,0 UV-I 0 W/m 17,0 C 17,8 C 0,0 km/h (0 Bft) 100,00 %
23.07.2016 03:58 17,8 C 96 % 1013,9 hPa 0,0 l/m 0,5 km/h (0 Bft) S 186 0 min 0,000 mm 0,0 UV-I 0 W/m 17,2 C 17,8 C 1,6 km/h (1 Bft) 94,00 %
23.07.2016 04:00 17,8 C 96 % 1013,9 hPa 0,0 l/m 0,3 km/h (0 Bft) S 186 0 min 0,000 mm 0,0 UV-I 0 W/m 17,2 C 17,8 C 1,6 km/h (1 Bft) 97,87 %
23.07.2016 04:02 17,8 C 96 % 1013,9 hPa 0,0 l/m 0,0 km/h (0 Bft) S 186 0 min 0,000 mm 0,0 UV-I 0 W/m 17,2 C 17,8 C 0,0 km/h (0 Bft) 92,59 %
23.07.2016 04:04 17,8 C 95 % 1013,9 hPa 0,0 l/m 0,0 km/h (0 Bft) S 186 0 min 0,000 mm 0,0 UV-I 0 W/m 17,0 C 17,8 C 0,0 km/h (0 Bft) 98,00 %
23.07.2016 04:06 17,8 C 96 % 1014,0 hPa 0,0 l/m 0,0 km/h (0 Bft) S 186 0 min 0,000 mm 0,0 UV-I 0 W/m 17,2 C 17,8 C 0,0 km/h (0 Bft) 97,56 %
23.07.2016 04:08 17,8 C 96 % 1014,0 hPa 0,0 l/m 0,0 km/h (0 Bft) S 186 0 min 0,000 mm 0,0 UV-I 0 W/m 17,2 C 17,8 C 0,0 km/h (0 Bft) 98,11 %
23.07.2016 04:10 17,8 C 95 % 1013,9 hPa 0,0 l/m 1,8 km/h (1 Bft) S 186 0 min 0,000 mm 0,0 UV-I 0 W/m 17,0 C 17,8 C 3,2 km/h (1 Bft) 97,62 %
23.07.2016 04:12 17,7 C 95 % 1013,9 hPa 0,0 l/m 2,5 km/h (1 Bft) S 186 0 min 0,000 mm 0,0 UV-I 0 W/m 16,9 C 17,7 C 3,2 km/h (1 Bft) 96,15 %
23.07.2016 04:14 17,7 C 96 % 1013,9 hPa 0,0 l/m 2,3 km/h (1 Bft) S 186 0 min 0,000 mm 0,0 UV-I 0 W/m 17,1 C 17,7 C 3,2 km/h (1 Bft) 97,92 %
23.07.2016 04:16 17,7 C 96 % 1013,9 hPa 0,0 l/m 1,1 km/h (1 Bft) S 186 0 min 0,000 mm 0,0 UV-I 0 W/m 17,1 C 17,7 C 3,2 km/h (1 Bft) 97,14 %
23.07.2016 04:18 17,7 C 96 % 1013,9 hPa 0,0 l/m 1,1 km/h (1 Bft) S 186 0 min 0,000 mm 0,0 UV-I 0 W/m 17,1 C 17,7 C 1,6 km/h (1 Bft) 98,11 %
23.07.2016 04:20 17,6 C 96 % 1013,9 hPa 0,0 l/m 0,3 km/h (0 Bft) S 186 0 min 0,000 mm 0,0 UV-I 0 W/m 17,0 C 17,6 C 1,6 km/h (1 Bft) 98,00 %
23.07.2016 04:22 17,6 C 96 % 1013,9 hPa 0,0 l/m 0,1 km/h (0 Bft) S 186 0 min 0,000 mm 0,0 UV-I 0 W/m 17,0 C 17,6 C 1,6 km/h (1 Bft) 100,00 %
23.07.2016 04:24 17,6 C 96 % 1013,9 hPa 0,0 l/m 0,1 km/h (0 Bft) S 186 0 min 0,000 mm 0,0 UV-I 0 W/m 17,0 C 17,6 C 1,6 km/h (1 Bft) 98,00 %
23.07.2016 04:26 17,6 C 96 % 1013,8 hPa 0,0 l/m 0,1 km/h (0 Bft) S 186 0 min 0,000 mm 0,0 UV-I 0 W/m 17,0 C 17,6 C 1,6 km/h (1 Bft) 98,00 %
23.07.2016 04:28 17,6 C 96 % 1013,8 hPa 0,0 l/m 0,1 km/h (0 Bft) S 186 0 min 0,000 mm 0,0 UV-I 0 W/m 17,0 C 17,6 C 1,6 km/h (1 Bft) 98,00 %
23.07.2016 04:30 17,6 C 96 % 1013,8 hPa 0,0 l/m 0,1 km/h (0 Bft) S 186 0 min 0,000 mm 0,0 UV-I 0 W/m 17,0 C 17,6 C 1,6 km/h (1 Bft) 100,00 %
23.07.2016 04:32 17,6 C 96 % 1013,7 hPa 0,0 l/m 0,1 km/h (0 Bft) S 186 0 min 0,000 mm 0,0 UV-I 0 W/m 17,0 C 17,6 C 1,6 km/h (1 Bft) 98,00 %
23.07.2016 04:34 17,6 C 96 % 1013,7 hPa 0,0 l/m 1,6 km/h (1 Bft) S 186 0 min 0,000 mm 0,0 UV-I 0 W/m 17,0 C 17,6 C 3,2 km/h (1 Bft) 100,00 %
23.07.2016 04:36 17,6 C 96 % 1013,7 hPa 0,0 l/m 1,5 km/h (1 Bft) S 186 0 min 0,000 mm 0,0 UV-I 0 W/m 17,0 C 17,6 C 3,2 km/h (1 Bft) 100,00 %
23.07.2016 04:38 17,6 C 96 % 1013,7 hPa 0,0 l/m 2,4 km/h (1 Bft) S 186 0 min 0,000 mm 0,0 UV-I 0 W/m 17,0 C 17,6 C 4,8 km/h (1 Bft) 100,00 %
23.07.2016 04:40 17,6 C 95 % 1013,7 hPa 0,0 l/m 2,3 km/h (1 Bft) S 186 0 min 0,000 mm 0,0 UV-I 0 W/m 16,8 C 17,6 C 3,2 km/h (1 Bft) 100,00 %
23.07.2016 04:42 17,6 C 96 % 1013,7 hPa 0,0 l/m 2,4 km/h (1 Bft) S 186 0 min 0,000 mm 0,0 UV-I 0 W/m 17,0 C 17,6 C 3,2 km/h (1 Bft) 98,00 %
23.07.2016 04:44 17,5 C 96 % 1013,8 hPa 0,0 l/m 1,8 km/h (1 Bft) S 186 0 min 0,000 mm 0,0 UV-I 0 W/m 16,9 C 17,5 C 3,2 km/h (1 Bft) 100,00 %
23.07.2016 04:46 17,5 C 96 % 1013,8 hPa 0,0 l/m 1,9 km/h (1 Bft) S 186 0 min 0,000 mm 0,0 UV-I 0 W/m 16,9 C 17,5 C 3,2 km/h (1 Bft) 100,00 %
23.07.2016 04:48 17,5 C 96 % 1013,9 hPa 0,0 l/m 1,4 km/h (1 Bft) S 186 0 min 0,000 mm 0,0 UV-I 0 W/m 16,9 C 17,5 C 3,2 km/h (1 Bft) 100,00 %
23.07.2016 04:50 17,4 C 96 % 1013,9 hPa 0,0 l/m 1,5 km/h (1 Bft) S 186 0 min 0,000 mm 0,0 UV-I 0 W/m 16,8 C 17,4 C 3,2 km/h (1 Bft) 100,00 %
23.07.2016 04:52 17,4 C 96 % 1013,9 hPa 0,0 l/m 1,5 km/h (1 Bft) S 186 0 min 0,000 mm 0,0 UV-I 0 W/m 16,8 C 17,4 C 3,2 km/h (1 Bft) 100,00 %
23.07.2016 04:54 17,4 C 96 % 1013,9 hPa 0,0 l/m 2,4 km/h (1 Bft) S 186 0 min 0,000 mm 0,0 UV-I 0 W/m 16,8 C 17,4 C 3,2 km/h (1 Bft) 100,00 %
23.07.2016 04:56 17,4 C 96 % 1013,9 hPa 0,0 l/m 2,3 km/h (1 Bft) S 186 0 min 0,000 mm 0,0 UV-I 0 W/m 16,8 C 17,4 C 3,2 km/h (1 Bft) 100,00 %
23.07.2016 04:58 17,4 C 96 % 1013,9 hPa 0,0 l/m 1,2 km/h (1 Bft) S 186 0 min 0,000 mm 0,0 UV-I 0 W/m 16,8 C 17,4 C 1,6 km/h (1 Bft) 98,21 %
23.07.2016 05:00 17,4 C 96 % 1014,0 hPa 0,0 l/m 1,5 km/h (1 Bft) S 186 0 min 0,000 mm 0,0 UV-I 0 W/m 16,8 C 17,4 C 1,6 km/h (1 Bft) 100,00 %
23.07.2016 05:02 17,3 C 96 % 1014,1 hPa 0,0 l/m 3,5 km/h (1 Bft) S 186 0 min 0,000 mm 0,0 UV-I 0 W/m 16,7 C 17,3 C 4,8 km/h (1 Bft) 100,00 %
23.07.2016 05:04 17,3 C 96 % 1014,2 hPa 0,0 l/m 5,0 km/h (1 Bft) S 186 0 min 0,000 mm 0,0 UV-I 0 W/m 16,7 C 17,3 C 6,4 km/h (2 Bft) 100,00 %
23.07.2016 05:06 17,3 C 96 % 1014,3 hPa 0,0 l/m 4,3 km/h (1 Bft) S 186 0 min 0,000 mm 0,0 UV-I 0 W/m 16,7 C 17,3 C 6,4 km/h (2 Bft) 100,00 %
23.07.2016 05:08 17,2 C 96 % 1014,3 hPa 0,0 l/m 3,5 km/h (1 Bft) S 186 0 min 0,000 mm 0,0 UV-I 0 W/m 16,6 C 17,2 C 4,8 km/h (1 Bft) 100,00 %
23.07.2016 05:10 17,2 C 96 % 1014,3 hPa 0,0 l/m 3,4 km/h (1 Bft) S 186 0 min 0,000 mm 0,0 UV-I 0 W/m 16,6 C 17,2 C 6,4 km/h (2 Bft) 100,00 %
23.07.2016 05:12 17,2 C 96 % 1014,4 hPa 0,0 l/m 4,5 km/h (1 Bft) S-SW 203 0 min 0,000 mm 0,0 UV-I 0 W/m 16,6 C 17,2 C 6,4 km/h (2 Bft) 97,87 %
23.07.2016 05:14 17,2 C 96 % 1014,4 hPa 0,0 l/m 4,8 km/h (1 Bft) S-SW 201 0 min 0,000 mm 0,0 UV-I 0 W/m 16,6 C 17,2 C 8,0 km/h (2 Bft) 98,00 %
23.07.2016 05:16 17,2 C 96 % 1014,3 hPa 0,0 l/m 4,6 km/h (1 Bft) S 188 0 min 0,000 mm 0,0 UV-I 0 W/m 16,6 C 17,2 C 6,4 km/h (2 Bft) 100,00 %
23.07.2016 05:18 17,1 C 96 % 1014,3 hPa 0,0 l/m 4,7 km/h (1 Bft) S 190 0 min 0,000 mm 0,0 UV-I 0 W/m 16,5 C 17,1 C 8,0 km/h (2 Bft) 100,00 %
23.07.2016 05:20 17,1 C 96 % 1014,3 hPa 0,0 l/m 5,1 km/h (1 Bft) S 187 0 min 0,000 mm 0,0 UV-I 0 W/m 16,5 C 17,1 C 6,4 km/h (2 Bft) 100,00 %
23.07.2016 05:22 17,1 C 96 % 1014,3 hPa 0,0 l/m 4,5 km/h (1 Bft) S-SW 196 0 min 0,000 mm 0,0 UV-I 0 W/m 16,5 C 17,1 C 8,0 km/h (2 Bft) 100,00 %
23.07.2016 05:24 17,1 C 96 % 1014,4 hPa 0,0 l/m 4,0 km/h (1 Bft) S-SW 195 0 min 0,000 mm 0,0 UV-I 0 W/m 16,5 C 17,1 C 6,4 km/h (2 Bft) 100,00 %
23.07.2016 05:26 17,1 C 96 % 1014,3 hPa 0,0 l/m 4,0 km/h (1 Bft) S-SW 194 0 min 0,000 mm 0,0 UV-I 0 W/m 16,5 C 17,1 C 4,8 km/h (1 Bft) 100,00 %
23.07.2016 05:28 17,1 C 96 % 1014,4 hPa 0,0 l/m 4,1 km/h (1 Bft) S 190 0 min 0,000 mm 0,0 UV-I 0 W/m 16,5 C 17,1 C 6,4 km/h (2 Bft) 100,00 %
23.07.2016 05:30 17,1 C 96 % 1014,3 hPa 0,0 l/m 4,1 km/h (1 Bft) S-SW 196 0 min 0,000 mm 0,0 UV-I 0 W/m 16,5 C 17,1 C 6,4 km/h (2 Bft) 100,00 %
23.07.2016 05:32 17,1 C 96 % 1014,3 hPa 0,0 l/m 2,9 km/h (1 Bft) S-SW 195 0 min 0,000 mm 0,0 UV-I 0 W/m 16,5 C 17,1 C 6,4 km/h (2 Bft) 100,00 %
23.07.2016 05:34 17,1 C 96 % 1014,3 hPa 0,0 l/m 2,5 km/h (1 Bft) S-SW 195 0 min 0,000 mm 0,0 UV-I 0 W/m 16,5 C 17,1 C 4,8 km/h (1 Bft) 96,00 %
23.07.2016 05:36 17,1 C 96 % 1014,2 hPa 0,0 l/m 2,2 km/h (1 Bft) S-SW 195 0 min 0,000 mm 0,0 UV-I 5 W/m 16,5 C 17,1 C 3,2 km/h (1 Bft) 98,00 %
23.07.2016 05:38 17,1 C 96 % 1014,3 hPa 0,0 l/m 3,7 km/h (1 Bft) S-SW 194 0 min 0,000 mm 0,0 UV-I 5 W/m 16,5 C 17,1 C 4,8 km/h (1 Bft) 97,87 %
23.07.2016 05:40 17,1 C 96 % 1014,2 hPa 0,0 l/m 1,9 km/h (1 Bft) S-SW 194 0 min 0,000 mm 0,0 UV-I 5 W/m 16,5 C 17,1 C 3,2 km/h (1 Bft) 100,00 %
23.07.2016 05:42 17,1 C 96 % 1014,2 hPa 0,0 l/m 2,2 km/h (1 Bft) S-SW 194 0 min 0,000 mm 0,0 UV-I 6 W/m 16,5 C 17,1 C 4,8 km/h (1 Bft) 100,00 %
23.07.2016 05:44 17,1 C 96 % 1014,2 hPa 0,0 l/m 2,0 km/h (1 Bft) S-SW 195 0 min 0,000 mm 0,0 UV-I 7 W/m 16,5 C 17,1 C 3,2 km/h (1 Bft) 100,00 %
23.07.2016 05:46 17,1 C 96 % 1014,2 hPa 0,0 l/m 3,1 km/h (1 Bft) S-SW 194 0 min 0,000 mm 0,0 UV-I 7 W/m 16,5 C 17,1 C 4,8 km/h (1 Bft) 100,00 %
23.07.2016 05:48 17,0 C 96 % 1014,2 hPa 0,0 l/m 2,2 km/h (1 Bft) S-SW 194 0 min 0,000 mm 0,0 UV-I 8 W/m 16,4 C 17,0 C 3,2 km/h (1 Bft) 98,00 %
23.07.2016 05:50 17,0 C 96 % 1014,2 hPa 0,0 l/m 2,7 km/h (1 Bft) S-SW 194 0 min 0,000 mm 0,0 UV-I 9 W/m 16,4 C 17,0 C 4,8 km/h (1 Bft) 95,12 %
23.07.2016 05:52 17,0 C 96 % 1014,2 hPa 0,0 l/m 2,9 km/h (1 Bft) S-SW 194 0 min 0,000 mm 0,0 UV-I 9 W/m 16,4 C 17,0 C 4,8 km/h (1 Bft) 98,11 %
23.07.2016 05:54 17,0 C 96 % 1014,2 hPa 0,0 l/m 2,0 km/h (1 Bft) S-SW 194 0 min 0,000 mm 0,0 UV-I 10 W/m 16,4 C 17,0 C 3,2 km/h (1 Bft) 98,00 %
23.07.2016 05:56 17,0 C 96 % 1014,2 hPa 0,0 l/m 1,3 km/h (1 Bft) S-SW 194 0 min 0,000 mm 0,0 UV-I 11 W/m 16,4 C 17,0 C 3,2 km/h (1 Bft) 95,74 %
23.07.2016 05:58 17,0 C 96 % 1014,2 hPa 0,0 l/m 1,9 km/h (1 Bft) S-SW 194 0 min 0,000 mm 0,0 UV-I 11 W/m 16,4 C 17,0 C 4,8 km/h (1 Bft) 95,74 %
23.07.2016 06:00 16,9 C 96 % 1014,2 hPa 0,0 l/m 3,3 km/h (1 Bft) S-SW 194 0 min 0,000 mm 0,0 UV-I 12 W/m 16,3 C 16,9 C 4,8 km/h (1 Bft) 97,87 %
23.07.2016 06:02 17,0 C 96 % 1014,2 hPa 0,0 l/m 2,9 km/h (1 Bft) S-SW 194 0 min 0,000 mm 0,0 UV-I 12 W/m 16,4 C 17,0 C 3,2 km/h (1 Bft) 98,00 %
23.07.2016 06:04 16,9 C 96 % 1014,3 hPa 0,0 l/m 1,9 km/h (1 Bft) S-SW 194 0 min 0,000 mm 0,0 UV-I 12 W/m 16,3 C 16,9 C 3,2 km/h (1 Bft) 97,37 %
23.07.2016 06:06 16,9 C 96 % 1014,3 hPa 0,0 l/m 2,5 km/h (1 Bft) S-SW 194 0 min 0,000 mm 0,0 UV-I 14 W/m 16,3 C 16,9 C 4,8 km/h (1 Bft) 98,00 %
23.07.2016 06:08 16,9 C 96 % 1014,3 hPa 0,0 l/m 3,7 km/h (1 Bft) S-SW 194 0 min 0,000 mm 0,0 UV-I 14 W/m 16,3 C 16,9 C 6,4 km/h (2 Bft) 98,11 %
23.07.2016 06:10 16,9 C 96 % 1014,4 hPa 0,0 l/m 3,5 km/h (1 Bft) S-SW 194 0 min 0,000 mm 0,0 UV-I 16 W/m 16,3 C 16,9 C 4,8 km/h (1 Bft) 95,74 %
23.07.2016 06:12 16,9 C 96 % 1014,4 hPa 0,0 l/m 3,6 km/h (1 Bft) S-SW 194 0 min 0,000 mm 0,0 UV-I 17 W/m 16,3 C 16,9 C 4,8 km/h (1 Bft) 95,74 %
23.07.2016 06:14 16,8 C 96 % 1014,4 hPa 0,0 l/m 3,9 km/h (1 Bft) S-SW 194 0 min 0,000 mm 0,0 UV-I 18 W/m 16,2 C 16,8 C 6,4 km/h (2 Bft) 97,92 %
23.07.2016 06:16 16,8 C 96 % 1014,5 hPa 0,0 l/m 3,7 km/h (1 Bft) S-SW 196 0 min 0,000 mm 0,0 UV-I 20 W/m 16,2 C 16,8 C 6,4 km/h (2 Bft) 97,56 %
23.07.2016 06:18 16,8 C 96 % 1014,5 hPa 0,0 l/m 3,2 km/h (1 Bft) S-SW 198 0 min 0,000 mm 0,0 UV-I 21 W/m 16,2 C 16,8 C 6,4 km/h (2 Bft) 96,23 %
23.07.2016 06:20 16,8 C 96 % 1014,5 hPa 0,0 l/m 5,1 km/h (1 Bft) S-SW 192 0 min 0,000 mm 0,0 UV-I 23 W/m 16,2 C 16,8 C 9,7 km/h (2 Bft) 97,37 %
23.07.2016 06:22 16,8 C 96 % 1014,5 hPa 0,0 l/m 5,3 km/h (1 Bft) SW 215 0 min 0,000 mm 0,0 UV-I 23 W/m 16,2 C 16,8 C 8,0 km/h (2 Bft) 100,00 %
23.07.2016 06:24 16,8 C 96 % 1014,6 hPa 0,0 l/m 6,6 km/h (2 Bft) S 186 0 min 0,000 mm 0,0 UV-I 25 W/m 16,2 C 16,7 C 9,7 km/h (2 Bft) 96,43 %
23.07.2016 06:26 16,8 C 96 % 1014,6 hPa 0,0 l/m 5,8 km/h (2 Bft) S-SW 192 0 min 0,000 mm 0,0 UV-I 27 W/m 16,2 C 16,8 C 9,7 km/h (2 Bft) 100,00 %
23.07.2016 06:28 16,8 C 96 % 1014,6 hPa 0,0 l/m 6,2 km/h (2 Bft) S-SW 208 0 min 0,000 mm 0,0 UV-I 30 W/m 16,2 C 16,8 C 8,0 km/h (2 Bft) 100,00 %
23.07.2016 06:30 16,9 C 96 % 1014,5 hPa 0,0 l/m 6,5 km/h (2 Bft) S 182 0 min 0,000 mm 0,0 UV-I 33 W/m 16,3 C 16,9 C 11,3 km/h (2 Bft) 100,00 %
23.07.2016 06:32 16,9 C 96 % 1014,5 hPa 0,0 l/m 6,8 km/h (2 Bft) S-SW 194 0 min 0,000 mm 0,0 UV-I 36 W/m 16,3 C 16,7 C 9,7 km/h (2 Bft) 100,00 %
23.07.2016 06:34 16,9 C 96 % 1014,5 hPa 0,0 l/m 6,3 km/h (2 Bft) SW 221 0 min 0,000 mm 0,0 UV-I 38 W/m 16,3 C 16,9 C 8,0 km/h (2 Bft) 98,21 %
23.07.2016 06:36 17,0 C 96 % 1014,5 hPa 0,0 l/m 7,3 km/h (2 Bft) S-SO 168 0 min 0,000 mm 0,0 UV-I 41 W/m 16,4 C 16,5 C 12,9 km/h (3 Bft) 100,00 %
23.07.2016 06:38 17,1 C 96 % 1014,5 hPa 0,0 l/m 6,8 km/h (2 Bft) S-SW 206 0 min 0,000 mm 0,0 UV-I 43 W/m 16,5 C 16,9 C 12,9 km/h (3 Bft) 100,00 %
23.07.2016 06:40 17,1 C 96 % 1014,5 hPa 0,0 l/m 7,5 km/h (2 Bft) S-SW 204 0 min 0,000 mm 0,0 UV-I 45 W/m 16,5 C 16,5 C 12,9 km/h (3 Bft) 100,00 %
23.07.2016 06:42 17,2 C 95 % 1014,5 hPa 0,0 l/m 6,9 km/h (2 Bft) S-SW 209 0 min 0,000 mm 0,0 UV-I 48 W/m 16,4 C 17,0 C 9,7 km/h (2 Bft) 100,00 %
23.07.2016 06:44 17,2 C 96 % 1014,5 hPa 0,0 l/m 8,3 km/h (2 Bft) SW 229 0 min 0,000 mm 0,0 UV-I 50 W/m 16,6 C 16,3 C 14,5 km/h (3 Bft) 97,62 %
23.07.2016 06:46 17,2 C 95 % 1014,5 hPa 0,0 l/m 5,6 km/h (1 Bft) S-SW 212 0 min 0,000 mm 0,0 UV-I 54 W/m 16,4 C 17,2 C 11,3 km/h (2 Bft) 97,73 %
23.07.2016 06:48 17,3 C 95 % 1014,5 hPa 0,0 l/m 6,0 km/h (2 Bft) S-SW 196 0 min 0,000 mm 0,0 UV-I 68 W/m 16,5 C 17,3 C 9,7 km/h (2 Bft) 100,00 %
23.07.2016 06:50 17,3 C 95 % 1014,5 hPa 0,0 l/m 5,0 km/h (1 Bft) SW 229 0 min 0,000 mm 0,0 UV-I 95 W/m 16,5 C 17,3 C 8,0 km/h (2 Bft) 100,00 %
23.07.2016 06:52 17,4 C 95 % 1014,5 hPa 0,0 l/m 5,8 km/h (2 Bft) S 187 0 min 0,000 mm 0,0 UV-I 100 W/m 16,6 C 17,4 C 9,7 km/h (2 Bft) 98,11 %
23.07.2016 06:54 17,4 C 95 % 1014,5 hPa 0,0 l/m 6,5 km/h (2 Bft) S 183 0 min 0,000 mm 0,0 UV-I 105 W/m 16,6 C 17,4 C 11,3 km/h (2 Bft) 100,00 %
23.07.2016 06:56 17,5 C 95 % 1014,6 hPa 0,0 l/m 9,1 km/h (2 Bft) S-SW 198 0 min 0,000 mm 0,0 UV-I 108 W/m 16,7 C 16,2 C 12,9 km/h (3 Bft) 100,00 %
23.07.2016 06:58 17,6 C 95 % 1014,5 hPa 0,0 l/m 8,2 km/h (2 Bft) S 184 0 min 0,000 mm 0,0 UV-I 111 W/m 16,8 C 16,7 C 12,9 km/h (3 Bft) 100,00 %
23.07.2016 07:00 17,7 C 94 % 1014,5 hPa 0,0 l/m 5,9 km/h (2 Bft) S-SW 197 0 min 0,025 mm 0,0 UV-I 112 W/m 16,7 C 17,7 C 8,0 km/h (2 Bft) 100,00 %
23.07.2016 07:02 17,8 C 95 % 1014,5 hPa 0,0 l/m 5,8 km/h (2 Bft) S 182 0 min 0,000 mm 0,0 UV-I 114 W/m 17,0 C 17,8 C 8,0 km/h (2 Bft) 100,00 %
23.07.2016 07:04 17,8 C 94 % 1014,5 hPa 0,0 l/m 6,4 km/h (2 Bft) S 172 0 min 0,000 mm 0,0 UV-I 118 W/m 16,8 C 17,8 C 9,7 km/h (2 Bft) 100,00 %
23.07.2016 07:06 17,9 C 94 % 1014,5 hPa 0,0 l/m 6,1 km/h (2 Bft) SW 215 0 min 0,000 mm 0,0 UV-I 123 W/m 16,9 C 17,9 C 11,3 km/h (2 Bft) 100,00 %
23.07.2016 07:08 18,0 C 94 % 1014,5 hPa 0,0 l/m 7,0 km/h (2 Bft) S 175 0 min 0,000 mm 0,0 UV-I 130 W/m 17,0 C 17,7 C 11,3 km/h (2 Bft) 97,87 %
23.07.2016 07:10 18,1 C 94 % 1014,5 hPa 0,0 l/m 4,4 km/h (1 Bft) SW 218 0 min 0,000 mm 0,0 UV-I 135 W/m 17,1 C 18,1 C 6,4 km/h (2 Bft) 100,00 %
23.07.2016 07:12 18,1 C 94 % 1014,6 hPa 0,0 l/m 5,8 km/h (2 Bft) SW 221 0 min 0,000 mm 0,0 UV-I 141 W/m 17,1 C 18,1 C 8,0 km/h (2 Bft) 100,00 %
23.07.2016 07:14 18,2 C 93 % 1014,6 hPa 0,0 l/m 5,5 km/h (1 Bft) S-SW 200 2 min 0,000 mm 0,0 UV-I 147 W/m 17,0 C 18,2 C 8,0 km/h (2 Bft) 100,00 %
23.07.2016 07:16 18,2 C 93 % 1014,7 hPa 0,0 l/m 5,5 km/h (1 Bft) S-SW 200 2 min 0,000 mm 0,0 UV-I 153 W/m 17,0 C 18,2 C 8,0 km/h (2 Bft) 100,00 %
23.07.2016 07:18 18,3 C 93 % 1014,6 hPa 0,0 l/m 6,6 km/h (2 Bft) SW 228 2 min 0,000 mm 0,0 UV-I 156 W/m 17,1 C 18,2 C 11,3 km/h (2 Bft) 97,87 %
23.07.2016 07:20 18,4 C 92 % 1014,6 hPa 0,0 l/m 4,8 km/h (1 Bft) S-SW 207 2 min 0,000 mm 0,0 UV-I 161 W/m 17,1 C 18,4 C 8,0 km/h (2 Bft) 100,00 %
23.07.2016 07:22 18,4 C 93 % 1014,6 hPa 0,0 l/m 5,0 km/h (1 Bft) S-SW 194 2 min 0,000 mm 0,0 UV-I 166 W/m 17,2 C 18,4 C 8,0 km/h (2 Bft) 97,56 %
23.07.2016 07:24 18,5 C 92 % 1014,6 hPa 0,0 l/m 3,7 km/h (1 Bft) SW 229 2 min 0,000 mm 0,0 UV-I 169 W/m 17,2 C 18,5 C 9,7 km/h (2 Bft) 100,00 %
23.07.2016 07:26 18,6 C 93 % 1014,6 hPa 0,0 l/m 5,7 km/h (1 Bft) S 186 2 min 0,000 mm 0,0 UV-I 171 W/m 17,4 C 18,6 C 8,0 km/h (2 Bft) 98,00 %
23.07.2016 07:28 18,6 C 92 % 1014,5 hPa 0,0 l/m 5,2 km/h (1 Bft) S-SW 199 2 min 0,000 mm 0,3 UV-I 172 W/m 17,3 C 18,6 C 9,7 km/h (2 Bft) 100,00 %
23.07.2016 07:30 18,7 C 92 % 1014,6 hPa 0,0 l/m 1,6 km/h (1 Bft) S-SW 199 2 min 0,000 mm 0,5 UV-I 178 W/m 17,4 C 18,7 C 3,2 km/h (1 Bft) 97,44 %
23.07.2016 07:32 18,8 C 91 % 1014,6 hPa 0,0 l/m 2,3 km/h (1 Bft) S 170 2 min 0,000 mm 0,5 UV-I 190 W/m 17,3 C 18,8 C 6,4 km/h (2 Bft) 100,00 %
23.07.2016 07:34 18,8 C 91 % 1014,6 hPa 0,0 l/m 2,6 km/h (1 Bft) S-SW 204 2 min 0,000 mm 0,5 UV-I 211 W/m 17,3 C 18,8 C 6,4 km/h (2 Bft) 100,00 %
23.07.2016 07:36 19,0 C 91 % 1014,6 hPa 0,0 l/m 5,4 km/h (1 Bft) S-SW 211 2 min 0,000 mm 0,6 UV-I 238 W/m 17,5 C 19,0 C 8,0 km/h (2 Bft) 100,00 %
23.07.2016 07:38 19,2 C 92 % 1014,6 hPa 0,0 l/m 5,9 km/h (2 Bft) S-SW 213 2 min 0,000 mm 0,6 UV-I 272 W/m 17,9 C 19,2 C 8,0 km/h (2 Bft) 100,00 %
23.07.2016 07:40 19,4 C 91 % 1014,6 hPa 0,0 l/m 4,0 km/h (1 Bft) SW 214 2 min 0,000 mm 0,6 UV-I 302 W/m 17,9 C 19,4 C 6,4 km/h (2 Bft) 100,00 %
23.07.2016 07:42 19,6 C 91 % 1014,6 hPa 0,0 l/m 4,1 km/h (1 Bft) SW 229 2 min 0,000 mm 0,6 UV-I 331 W/m 18,1 C 19,6 C 6,4 km/h (2 Bft) 100,00 %
23.07.2016 07:44 19,7 C 90 % 1014,6 hPa 0,0 l/m 5,6 km/h (1 Bft) SW 227 2 min 0,000 mm 0,7 UV-I 353 W/m 18,0 C 19,7 C 8,0 km/h (2 Bft) 100,00 %
23.07.2016 07:46 19,8 C 89 % 1014,7 hPa 0,0 l/m 6,6 km/h (2 Bft) S-SW 209 2 min 0,000 mm 0,7 UV-I 367 W/m 17,9 C 19,7 C 9,7 km/h (2 Bft) 98,11 %
23.07.2016 07:48 19,8 C 90 % 1014,7 hPa 0,0 l/m 5,8 km/h (2 Bft) SW 232 2 min 0,000 mm 0,7 UV-I 376 W/m 18,1 C 19,8 C 11,3 km/h (2 Bft) 96,00 %
23.07.2016 07:50 19,9 C 89 % 1014,7 hPa 0,0 l/m 3,3 km/h (1 Bft) W-SW 242 2 min 0,000 mm 0,7 UV-I 372 W/m 18,0 C 19,9 C 8,0 km/h (2 Bft) 97,37 %
23.07.2016 07:52 20,0 C 88 % 1014,8 hPa 0,0 l/m 6,4 km/h (2 Bft) S 173 2 min 0,000 mm 0,7 UV-I 325 W/m 17,9 C 20,0 C 8,0 km/h (2 Bft) 95,74 %
23.07.2016 07:54 20,0 C 89 % 1014,7 hPa 0,0 l/m 4,1 km/h (1 Bft) SW 236 2 min 0,000 mm 0,7 UV-I 327 W/m 18,1 C 20,0 C 6,4 km/h (2 Bft) 98,11 %
23.07.2016 07:56 20,1 C 89 % 1014,7 hPa 0,0 l/m 3,6 km/h (1 Bft) SW 232 2 min 0,000 mm 0,7 UV-I 279 W/m 18,2 C 20,1 C 6,4 km/h (2 Bft) 97,87 %
23.07.2016 07:58 20,1 C 88 % 1014,8 hPa 0,0 l/m 5,0 km/h (1 Bft) S-SW 213 2 min 0,000 mm 0,7 UV-I 240 W/m 18,0 C 20,1 C 6,4 km/h (2 Bft) 96,00 %
23.07.2016 08:00 20,1 C 88 % 1014,8 hPa 0,0 l/m 5,7 km/h (1 Bft) SW 232 2 min 0,000 mm 0,8 UV-I 226 W/m 18,0 C 20,1 C 9,7 km/h (2 Bft) 94,74 %
23.07.2016 08:02 20,1 C 88 % 1014,8 hPa 0,0 l/m 5,9 km/h (2 Bft) W-SW 239 2 min 0,127 mm 0,8 UV-I 220 W/m 18,0 C 20,1 C 8,0 km/h (2 Bft) 96,43 %
23.07.2016 08:04 20,1 C 87 % 1014,8 hPa 0,0 l/m 4,9 km/h (1 Bft) S-SW 199 2 min 0,000 mm 0,8 UV-I 218 W/m 17,9 C 20,1 C 9,7 km/h (2 Bft) 97,56 %
23.07.2016 08:06 20,1 C 88 % 1014,9 hPa 0,0 l/m 4,4 km/h (1 Bft) S 186 0 min 0,000 mm 0,8 UV-I 199 W/m 18,0 C 20,1 C 6,4 km/h (2 Bft) 97,22 %
23.07.2016 08:08 20,1 C 89 % 1014,8 hPa 0,0 l/m 3,3 km/h (1 Bft) W 259 0 min 0,000 mm 0,9 UV-I 192 W/m 18,2 C 20,1 C 6,4 km/h (2 Bft) 98,44 %
23.07.2016 08:10 20,1 C 88 % 1014,8 hPa 0,0 l/m 2,5 km/h (1 Bft) SW 233 0 min 0,000 mm 0,9 UV-I 187 W/m 18,0 C 20,1 C 6,4 km/h (2 Bft) 97,22 %
23.07.2016 08:12 20,0 C 88 % 1014,9 hPa 0,0 l/m 7,0 km/h (2 Bft) S-SW 213 2 min 0,000 mm 1,0 UV-I 258 W/m 17,9 C 19,8 C 11,3 km/h (2 Bft) 97,87 %
23.07.2016 08:14 20,1 C 89 % 1014,9 hPa 0,0 l/m 4,8 km/h (1 Bft) W-SW 253 2 min 0,000 mm 1,1 UV-I 233 W/m 18,2 C 20,1 C 8,0 km/h (2 Bft) 96,23 %
23.07.2016 08:16 20,2 C 88 % 1014,8 hPa 0,0 l/m 3,1 km/h (1 Bft) W 262 2 min 0,000 mm 1,1 UV-I 250 W/m 18,1 C 20,2 C 6,4 km/h (2 Bft) 97,37 %
23.07.2016 08:18 20,2 C 86 % 1014,7 hPa 0,0 l/m 5,7 km/h (1 Bft) W 263 2 min 0,000 mm 1,2 UV-I 311 W/m 17,8 C 20,2 C 6,4 km/h (2 Bft) 94,74 %
23.07.2016 08:20 20,3 C 88 % 1014,8 hPa 0,0 l/m 3,1 km/h (1 Bft) W 270 2 min 0,000 mm 1,3 UV-I 400 W/m 18,2 C 20,3 C 6,4 km/h (2 Bft) 96,00 %
23.07.2016 08:22 20,4 C 87 % 1014,7 hPa 0,0 l/m 2,6 km/h (1 Bft) W 270 2 min 0,000 mm 1,3 UV-I 419 W/m 18,2 C 20,4 C 6,4 km/h (2 Bft) 100,00 %
23.07.2016 08:24 20,5 C 85 % 1014,7 hPa 0,0 l/m 1,9 km/h (1 Bft) W 271 2 min 0,000 mm 1,2 UV-I 330 W/m 17,9 C 20,5 C 3,2 km/h (1 Bft) 100,00 %
23.07.2016 08:26 20,7 C 88 % 1014,7 hPa 0,0 l/m 3,3 km/h (1 Bft) W 274 0 min 0,000 mm 1,1 UV-I 246 W/m 18,6 C 20,7 C 6,4 km/h (2 Bft) 100,00 %
23.07.2016 08:28 20,6 C 85 % 1014,7 hPa 0,0 l/m 3,6 km/h (1 Bft) W 272 0 min 0,000 mm 1,2 UV-I 228 W/m 18,0 C 20,6 C 4,8 km/h (1 Bft) 100,00 %
23.07.2016 08:30 20,7 C 84 % 1014,7 hPa 0,0 l/m 4,5 km/h (1 Bft) W-SW 248 0 min 0,000 mm 1,1 UV-I 202 W/m 17,9 C 20,7 C 6,4 km/h (2 Bft) 97,37 %
23.07.2016 08:32 20,6 C 84 % 1014,7 hPa 0,0 l/m 1,6 km/h (1 Bft) W 281 0 min 0,000 mm 1,2 UV-I 194 W/m 17,8 C 20,6 C 3,2 km/h (1 Bft) 100,00 %
23.07.2016 08:34 20,7 C 85 % 1014,7 hPa 0,0 l/m 1,6 km/h (1 Bft) W 281 0 min 0,000 mm 1,3 UV-I 215 W/m 18,1 C 20,7 C 3,2 km/h (1 Bft) 97,87 %
23.07.2016 08:36 20,8 C 87 % 1014,7 hPa 0,0 l/m 0,9 km/h (0 Bft) W 281 0 min 0,000 mm 1,5 UV-I 256 W/m 18,6 C 20,8 C 3,2 km/h (1 Bft) 100,00 %
23.07.2016 08:38 20,9 C 86 % 1014,6 hPa 0,0 l/m 1,1 km/h (1 Bft) W 281 2 min 0,000 mm 1,7 UV-I 530 W/m 18,5 C 20,9 C 3,2 km/h (1 Bft) 100,00 %
23.07.2016 08:40 21,1 C 86 % 1014,6 hPa 0,0 l/m 1,9 km/h (1 Bft) W 279 2 min 0,000 mm 1,6 UV-I 555 W/m 18,7 C 21,1 C 3,2 km/h (1 Bft) 98,11 %
23.07.2016 08:42 21,1 C 83 % 1014,6 hPa 0,0 l/m 1,4 km/h (1 Bft) W 280 2 min 0,000 mm 1,6 UV-I 350 W/m 18,1 C 21,1 C 3,2 km/h (1 Bft) 100,00 %
23.07.2016 08:44 21,2 C 84 % 1014,6 hPa 0,0 l/m 1,0 km/h (0 Bft) W 281 2 min 0,000 mm 1,7 UV-I 441 W/m 18,4 C 21,2 C 3,2 km/h (1 Bft) 100,00 %
23.07.2016 08:46 21,3 C 83 % 1014,7 hPa 0,0 l/m 0,2 km/h (0 Bft) W 281 2 min 0,000 mm 1,8 UV-I 517 W/m 18,3 C 21,3 C 1,6 km/h (1 Bft) 100,00 %
23.07.2016 08:48 21,3 C 82 % 1014,7 hPa 0,0 l/m 2,8 km/h (1 Bft) S-SW 194 2 min 0,000 mm 1,5 UV-I 421 W/m 18,1 C 21,3 C 4,8 km/h (1 Bft) 100,00 %
23.07.2016 08:50 21,4 C 83 % 1014,7 hPa 0,0 l/m 2,7 km/h (1 Bft) W-SW 257 2 min 0,000 mm 1,5 UV-I 294 W/m 18,4 C 21,4 C 4,8 km/h (1 Bft) 100,00 %
23.07.2016 08:52 21,3 C 81 % 1014,7 hPa 0,0 l/m 2,3 km/h (1 Bft) W-SW 257 0 min 0,000 mm 1,4 UV-I 213 W/m 17,9 C 21,3 C 4,8 km/h (1 Bft) 100,00 %
23.07.2016 08:54 21,2 C 82 % 1014,7 hPa 0,0 l/m 0,3 km/h (0 Bft) W-SW 257 0 min 0,000 mm 1,5 UV-I 261 W/m 18,0 C 21,2 C 1,6 km/h (1 Bft) 100,00 %
23.07.2016 08:56 21,1 C 84 % 1014,7 hPa 0,0 l/m 0,6 km/h (0 Bft) W-SW 257 0 min 0,000 mm 1,6 UV-I 283 W/m 18,3 C 21,1 C 3,2 km/h (1 Bft) 97,87 %
23.07.2016 08:58 21,2 C 83 % 1014,7 hPa 0,0 l/m 2,4 km/h (1 Bft) W-SW 257 0 min 0,000 mm 1,7 UV-I 272 W/m 18,2 C 21,2 C 4,8 km/h (1 Bft) 97,37 %
23.07.2016 09:00 21,3 C 83 % 1014,7 hPa 0,0 l/m 1,9 km/h (1 Bft) W-SW 257 2 min 0,178 mm 1,9 UV-I 360 W/m 18,3 C 21,3 C 3,2 km/h (1 Bft) 100,00 %
23.07.2016 09:02 21,4 C 81 % 1014,7 hPa 0,0 l/m 3,6 km/h (1 Bft) W 267 2 min 0,000 mm 2,1 UV-I 465 W/m 18,0 C 21,4 C 6,4 km/h (2 Bft) 100,00 %
23.07.2016 09:04 21,6 C 81 % 1014,7 hPa 0,0 l/m 2,4 km/h (1 Bft) W 265 2 min 0,000 mm 2,1 UV-I 458 W/m 18,2 C 21,6 C 4,8 km/h (1 Bft) 100,00 %
23.07.2016 09:06 21,6 C 80 % 1014,6 hPa 0,0 l/m 3,8 km/h (1 Bft) W-SW 239 2 min 0,000 mm 2,2 UV-I 454 W/m 18,0 C 21,6 C 4,8 km/h (1 Bft) 98,11 %
23.07.2016 09:08 21,6 C 81 % 1014,6 hPa 0,0 l/m 3,4 km/h (1 Bft) SW 231 2 min 0,000 mm 2,2 UV-I 453 W/m 18,2 C 21,6 C 6,4 km/h (2 Bft) 97,87 %
23.07.2016 09:10 21,7 C 80 % 1014,6 hPa 0,0 l/m 1,6 km/h (1 Bft) SW 232 2 min 0,000 mm 2,3 UV-I 454 W/m 18,1 C 21,7 C 4,8 km/h (1 Bft) 97,87 %
23.07.2016 09:12 21,8 C 81 % 1014,6 hPa 0,0 l/m 1,2 km/h (1 Bft) SW 232 2 min 0,000 mm 2,4 UV-I 454 W/m 18,4 C 21,8 C 3,2 km/h (1 Bft) 100,00 %
23.07.2016 09:14 21,9 C 82 % 1014,6 hPa 0,0 l/m 2,1 km/h (1 Bft) NW 307 2 min 0,000 mm 2,4 UV-I 459 W/m 18,7 C 21,9 C 4,8 km/h (1 Bft) 100,00 %
23.07.2016 09:16 22,1 C 80 % 1014,6 hPa 0,0 l/m 3,9 km/h (1 Bft) W 280 2 min 0,000 mm 2,5 UV-I 465 W/m 18,5 C 22,1 C 6,4 km/h (2 Bft) 100,00 %
23.07.2016 09:18 22,1 C 82 % 1014,6 hPa 0,0 l/m 1,1 km/h (1 Bft) W-NW 288 2 min 0,000 mm 2,6 UV-I 479 W/m 18,9 C 22,1 C 3,2 km/h (1 Bft) 97,87 %
23.07.2016 09:20 22,2 C 79 % 1014,5 hPa 0,0 l/m 1,2 km/h (1 Bft) W-NW 288 2 min 0,000 mm 2,6 UV-I 491 W/m 18,4 C 22,2 C 3,2 km/h (1 Bft) 100,00 %
23.07.2016 09:22 22,3 C 79 % 1014,6 hPa 0,0 l/m 2,4 km/h (1 Bft) W-NW 298 2 min 0,000 mm 2,7 UV-I 498 W/m 18,5 C 22,3 C 4,8 km/h (1 Bft) 100,00 %
23.07.2016 09:24 22,4 C 78 % 1014,6 hPa 0,0 l/m 2,9 km/h (1 Bft) W 277 2 min 0,000 mm 2,7 UV-I 502 W/m 18,4 C 22,4 C 6,4 km/h (2 Bft) 100,00 %
23.07.2016 09:26 22,4 C 75 % 1014,6 hPa 0,0 l/m 0,7 km/h (0 Bft) W 273 2 min 0,000 mm 2,7 UV-I 485 W/m 17,7 C 22,4 C 1,6 km/h (1 Bft) 100,00 %
23.07.2016 09:28 22,4 C 77 % 1014,6 hPa 0,0 l/m 4,9 km/h (1 Bft) SW 232 2 min 0,000 mm 2,7 UV-I 494 W/m 18,2 C 22,4 C 11,3 km/h (2 Bft) 100,00 %
23.07.2016 09:30 22,3 C 76 % 1014,6 hPa 0,0 l/m 4,9 km/h (1 Bft) W 277 2 min 0,000 mm 2,6 UV-I 432 W/m 17,9 C 22,3 C 11,3 km/h (2 Bft) 100,00 %
23.07.2016 09:32 22,3 C 77 % 1014,6 hPa 0,0 l/m 5,0 km/h (1 Bft) W-SW 239 2 min 0,000 mm 2,9 UV-I 495 W/m 18,1 C 22,3 C 8,0 km/h (2 Bft) 100,00 %
23.07.2016 09:34 22,3 C 78 % 1014,7 hPa 0,0 l/m 7,2 km/h (2 Bft) W 267 2 min 0,000 mm 2,9 UV-I 523 W/m 18,3 C 22,0 C 11,3 km/h (2 Bft) 100,00 %
23.07.2016 09:36 22,3 C 77 % 1014,7 hPa 0,0 l/m 6,2 km/h (2 Bft) SW 220 2 min 0,000 mm 2,9 UV-I 526 W/m 18,1 C 22,3 C 11,3 km/h (2 Bft) 100,00 %
23.07.2016 09:38 22,4 C 79 % 1014,7 hPa 0,0 l/m 4,5 km/h (1 Bft) W-SW 241 2 min 0,000 mm 2,9 UV-I 533 W/m 18,6 C 22,4 C 11,3 km/h (2 Bft) 100,00 %
23.07.2016 09:40 22,5 C 78 % 1014,6 hPa 0,0 l/m 4,7 km/h (1 Bft) W 279 2 min 0,000 mm 2,9 UV-I 545 W/m 18,5 C 22,5 C 8,0 km/h (2 Bft) 97,73 %
23.07.2016 09:42 22,6 C 78 % 1014,6 hPa 0,0 l/m 1,3 km/h (1 Bft) W 279 2 min 0,000 mm 3,0 UV-I 554 W/m 18,6 C 22,6 C 3,2 km/h (1 Bft) 100,00 %
23.07.2016 09:44 22,7 C 76 % 1014,7 hPa 0,0 l/m 3,9 km/h (1 Bft) S-SO 168 2 min 0,000 mm 3,0 UV-I 561 W/m 18,2 C 22,7 C 8,0 km/h (2 Bft) 97,37 %
23.07.2016 09:46 22,7 C 76 % 1014,7 hPa 0,0 l/m 5,6 km/h (1 Bft) S 172 2 min 0,000 mm 3,1 UV-I 572 W/m 18,2 C 22,7 C 9,7 km/h (2 Bft) 97,73 %
23.07.2016 09:48 22,7 C 78 % 1014,6 hPa 0,0 l/m 1,8 km/h (1 Bft) W-NW 290 2 min 0,000 mm 3,1 UV-I 583 W/m 18,7 C 22,7 C 4,8 km/h (1 Bft) 98,00 %
23.07.2016 09:50 22,8 C 78 % 1014,6 hPa 0,0 l/m 1,4 km/h (1 Bft) W-NW 290 2 min 0,000 mm 3,2 UV-I 589 W/m 18,8 C 22,8 C 4,8 km/h (1 Bft) 95,74 %
23.07.2016 09:52 22,9 C 74 % 1014,6 hPa 0,0 l/m 4,2 km/h (1 Bft) S-SW 200 2 min 0,000 mm 3,2 UV-I 591 W/m 18,0 C 22,9 C 8,0 km/h (2 Bft) 97,56 %
23.07.2016 09:54 22,9 C 76 % 1014,6 hPa 0,0 l/m 4,7 km/h (1 Bft) S-SO 167 2 min 0,000 mm 3,3 UV-I 592 W/m 18,4 C 22,9 C 11,3 km/h (2 Bft) 95,24 %
23.07.2016 09:56 22,9 C 77 % 1014,6 hPa 0,0 l/m 2,6 km/h (1 Bft) W-SW 250 2 min 0,000 mm 3,4 UV-I 599 W/m 18,6 C 22,9 C 6,4 km/h (2 Bft) 96,88 %
23.07.2016 09:58 22,9 C 77 % 1014,7 hPa 0,0 l/m 2,7 km/h (1 Bft) S-SW 193 2 min 0,000 mm 3,4 UV-I 604 W/m 18,6 C 22,9 C 4,8 km/h (1 Bft) 96,30 %
23.07.2016 10:00 22,9 C 75 % 1014,7 hPa 0,0 l/m 2,9 km/h (1 Bft) S-SW 193 2 min 0,330 mm 3,5 UV-I 609 W/m 18,2 C 22,9 C 6,4 km/h (2 Bft) 96,72 %
23.07.2016 10:02 22,8 C 74 % 1014,6 hPa 0,0 l/m 1,7 km/h (1 Bft) S 191 2 min 0,000 mm 3,5 UV-I 619 W/m 17,9 C 22,8 C 4,8 km/h (1 Bft) 97,92 %
23.07.2016 10:04 22,8 C 74 % 1014,7 hPa 0,0 l/m 2,6 km/h (1 Bft) S 190 2 min 0,000 mm 3,6 UV-I 622 W/m 17,9 C 22,8 C 3,2 km/h (1 Bft) 97,87 %
23.07.2016 10:06 22,9 C 75 % 1014,6 hPa 0,0 l/m 2,6 km/h (1 Bft) S-SO 157 2 min 0,000 mm 3,6 UV-I 622 W/m 18,2 C 22,9 C 4,8 km/h (1 Bft) 96,15 %
23.07.2016 10:08 23,0 C 75 % 1014,6 hPa 0,0 l/m 2,2 km/h (1 Bft) SW 227 2 min 0,000 mm 3,7 UV-I 623 W/m 18,3 C 23,0 C 6,4 km/h (2 Bft) 97,92 %
23.07.2016 10:10 23,1 C 74 % 1014,7 hPa 0,0 l/m 4,1 km/h (1 Bft) W 261 2 min 0,000 mm 3,7 UV-I 625 W/m 18,2 C 23,1 C 6,4 km/h (2 Bft) 97,37 %
23.07.2016 10:12 23,1 C 75 % 1014,7 hPa 0,0 l/m 3,7 km/h (1 Bft) W-SW 250 2 min 0,000 mm 3,7 UV-I 623 W/m 18,4 C 23,1 C 6,4 km/h (2 Bft) 97,87 %
23.07.2016 10:14 23,1 C 75 % 1014,6 hPa 0,0 l/m 1,2 km/h (1 Bft) W-SW 250 2 min 0,000 mm 3,8 UV-I 631 W/m 18,4 C 23,1 C 3,2 km/h (1 Bft) 97,87 %
23.07.2016 10:16 23,1 C 75 % 1014,6 hPa 0,0 l/m 2,9 km/h (1 Bft) S-SW 192 2 min 0,000 mm 3,9 UV-I 640 W/m 18,4 C 23,1 C 8,0 km/h (2 Bft) 97,87 %
23.07.2016 10:18 23,1 C 74 % 1014,6 hPa 0,0 l/m 2,4 km/h (1 Bft) S-SW 200 2 min 0,000 mm 3,9 UV-I 637 W/m 18,2 C 23,1 C 6,4 km/h (2 Bft) 97,87 %
23.07.2016 10:20 23,2 C 74 % 1014,7 hPa 0,0 l/m 2,4 km/h (1 Bft) W-SW 253 2 min 0,000 mm 3,9 UV-I 629 W/m 18,3 C 23,2 C 4,8 km/h (1 Bft) 100,00 %
23.07.2016 10:22 23,3 C 75 % 1014,7 hPa 0,0 l/m 1,1 km/h (1 Bft) W-SW 253 2 min 0,000 mm 4,0 UV-I 650 W/m 18,6 C 23,3 C 3,2 km/h (1 Bft) 100,00 %
23.07.2016 10:24 23,5 C 75 % 1014,6 hPa 0,0 l/m 1,9 km/h (1 Bft) W 260 2 min 0,000 mm 4,1 UV-I 652 W/m 18,8 C 23,5 C 6,4 km/h (2 Bft) 100,00 %
23.07.2016 10:26 23,5 C 74 % 1014,7 hPa 0,0 l/m 2,1 km/h (1 Bft) S-SO 155 2 min 0,000 mm 4,1 UV-I 659 W/m 18,6 C 23,5 C 4,8 km/h (1 Bft) 98,11 %
23.07.2016 10:28 23,4 C 73 % 1014,6 hPa 0,0 l/m 0,7 km/h (0 Bft) S-SO 155 2 min 0,000 mm 4,2 UV-I 675 W/m 18,3 C 23,4 C 3,2 km/h (1 Bft) 100,00 %
23.07.2016 10:30 23,6 C 77 % 1014,6 hPa 0,0 l/m 2,3 km/h (1 Bft) S-SO 155 2 min 0,000 mm 4,2 UV-I 682 W/m 19,3 C 23,6 C 4,8 km/h (1 Bft) 100,00 %
23.07.2016 10:32 23,7 C 72 % 1014,6 hPa 0,0 l/m 5,3 km/h (1 Bft) W-SW 241 2 min 0,000 mm 4,2 UV-I 690 W/m 18,3 C 23,7 C 9,7 km/h (2 Bft) 100,00 %
23.07.2016 10:34 23,7 C 74 % 1014,7 hPa 0,0 l/m 2,3 km/h (1 Bft) W-SW 241 2 min 0,000 mm 4,3 UV-I 712 W/m 18,8 C 23,7 C 4,8 km/h (1 Bft) 100,00 %
23.07.2016 10:36 23,9 C 74 % 1014,7 hPa 0,0 l/m 6,5 km/h (2 Bft) W-SW 255 2 min 0,000 mm 4,4 UV-I 724 W/m 19,0 C 23,9 C 11,3 km/h (2 Bft) 100,00 %
23.07.2016 10:38 24,1 C 76 % 1014,8 hPa 0,0 l/m 5,8 km/h (2 Bft) S-SW 209 2 min 0,000 mm 4,4 UV-I 730 W/m 19,6 C 24,1 C 11,3 km/h (2 Bft) 100,00 %
23.07.2016 10:40 24,2 C 73 % 1014,8 hPa 0,0 l/m 10,2 km/h (2 Bft) S 187 2 min 0,000 mm 4,5 UV-I 744 W/m 19,0 C 23,2 C 14,5 km/h (3 Bft) 97,56 %
23.07.2016 10:42 23,9 C 70 % 1014,8 hPa 0,0 l/m 5,5 km/h (1 Bft) W-SW 249 2 min 0,000 mm 4,5 UV-I 733 W/m 18,1 C 23,9 C 16,1 km/h (3 Bft) 100,00 %
23.07.2016 10:44 23,8 C 72 % 1014,8 hPa 0,0 l/m 5,8 km/h (2 Bft) S-SW 200 2 min 0,000 mm 4,6 UV-I 735 W/m 18,4 C 23,8 C 9,7 km/h (2 Bft) 95,45 %
23.07.2016 10:46 23,8 C 72 % 1014,8 hPa 0,0 l/m 4,1 km/h (1 Bft) S-SW 194 2 min 0,000 mm 4,6 UV-I 730 W/m 18,4 C 23,8 C 8,0 km/h (2 Bft) 100,00 %
23.07.2016 10:48 23,8 C 73 % 1014,7 hPa 0,0 l/m 4,6 km/h (1 Bft) SW 229 2 min 0,000 mm 4,6 UV-I 741 W/m 18,7 C 23,8 C 11,3 km/h (2 Bft) 100,00 %
23.07.2016 10:50 23,9 C 72 % 1014,8 hPa 0,0 l/m 5,2 km/h (1 Bft) SW 215 2 min 0,000 mm 4,3 UV-I 746 W/m 18,5 C 23,9 C 9,7 km/h (2 Bft) 100,00 %
23.07.2016 10:52 23,9 C 72 % 1014,7 hPa 0,0 l/m 4,2 km/h (1 Bft) SW 225 2 min 0,000 mm 4,6 UV-I 692 W/m 18,5 C 23,9 C 6,4 km/h (2 Bft) 100,00 %
23.07.2016 10:54 24,0 C 71 % 1014,7 hPa 0,0 l/m 3,2 km/h (1 Bft) S-SW 206 2 min 0,000 mm 4,7 UV-I 516 W/m 18,4 C 24,0 C 6,4 km/h (2 Bft) 100,00 %
23.07.2016 10:56 24,2 C 74 % 1014,7 hPa 0,0 l/m 3,9 km/h (1 Bft) S 180 2 min 0,000 mm 4,9 UV-I 745 W/m 19,3 C 24,2 C 6,4 km/h (2 Bft) 100,00 %
23.07.2016 10:58 24,4 C 72 % 1014,7 hPa 0,0 l/m 2,3 km/h (1 Bft) S 185 2 min 0,000 mm 4,9 UV-I 737 W/m 19,0 C 24,4 C 4,8 km/h (1 Bft) 100,00 %
23.07.2016 11:00 24,6 C 68 % 1014,7 hPa 0,0 l/m 3,2 km/h (1 Bft) S 189 2 min 0,432 mm 4,9 UV-I 728 W/m 18,3 C 24,6 C 6,4 km/h (2 Bft) 98,00 %
23.07.2016 11:02 24,6 C 71 % 1014,7 hPa 0,0 l/m 3,0 km/h (1 Bft) SW 236 2 min 0,000 mm 4,9 UV-I 728 W/m 19,0 C 24,6 C 4,8 km/h (1 Bft) 100,00 %
23.07.2016 11:04 24,6 C 71 % 1014,6 hPa 0,0 l/m 7,1 km/h (2 Bft) SW 233 2 min 0,000 mm 5,0 UV-I 731 W/m 19,0 C 24,4 C 14,5 km/h (3 Bft) 100,00 %
23.07.2016 11:06 24,7 C 72 % 1014,6 hPa 0,0 l/m 7,2 km/h (2 Bft) W-SW 241 2 min 0,000 mm 5,1 UV-I 736 W/m 19,3 C 24,5 C 9,7 km/h (2 Bft) 98,00 %
23.07.2016 11:08 24,7 C 72 % 1014,6 hPa 0,0 l/m 5,7 km/h (1 Bft) S-SO 168 2 min 0,000 mm 5,1 UV-I 750 W/m 19,3 C 24,7 C 9,7 km/h (2 Bft) 100,00 %
23.07.2016 11:10 24,7 C 70 % 1014,6 hPa 0,0 l/m 5,6 km/h (1 Bft) SW 236 2 min 0,000 mm 5,1 UV-I 759 W/m 18,8 C 24,7 C 8,0 km/h (2 Bft) 98,11 %
23.07.2016 11:12 24,6 C 69 % 1014,6 hPa 0,0 l/m 4,3 km/h (1 Bft) W-SW 243 2 min 0,000 mm 3,6 UV-I 558 W/m 18,5 C 24,6 C 6,4 km/h (2 Bft) 97,37 %
23.07.2016 11:14 24,3 C 70 % 1014,6 hPa 0,0 l/m 1,6 km/h (1 Bft) W 268 0 min 0,000 mm 3,1 UV-I 148 W/m 18,5 C 24,3 C 3,2 km/h (1 Bft) 100,00 %
23.07.2016 11:16 24,0 C 70 % 1014,6 hPa 0,0 l/m 4,9 km/h (1 Bft) S 186 0 min 0,000 mm 3,1 UV-I 150 W/m 18,2 C 24,0 C 9,7 km/h (2 Bft) 98,00 %
23.07.2016 11:18 23,8 C 71 % 1014,6 hPa 0,0 l/m 4,5 km/h (1 Bft) S 180 0 min 0,000 mm 3,1 UV-I 140 W/m 18,2 C 23,8 C 6,4 km/h (2 Bft) 100,00 %
23.07.2016 11:20 23,7 C 72 % 1014,6 hPa 0,0 l/m 2,3 km/h (1 Bft) S 178 0 min 0,000 mm 3,1 UV-I 149 W/m 18,3 C 23,7 C 3,2 km/h (1 Bft) 98,11 %
23.07.2016 11:22 23,7 C 72 % 1014,6 hPa 0,0 l/m 1,6 km/h (1 Bft) S 178 0 min 0,000 mm 4,3 UV-I 160 W/m 18,3 C 23,7 C 3,2 km/h (1 Bft) 100,00 %
23.07.2016 11:24 24,0 C 72 % 1014,6 hPa 0,0 l/m 2,8 km/h (1 Bft) S 184 2 min 0,000 mm 5,3 UV-I 691 W/m 18,6 C 24,0 C 6,4 km/h (2 Bft) 100,00 %
23.07.2016 11:26 24,3 C 69 % 1014,6 hPa 0,0 l/m 1,0 km/h (0 Bft) S-SW 200 2 min 0,000 mm 5,5 UV-I 787 W/m 18,2 C 24,3 C 3,2 km/h (1 Bft) 100,00 %
23.07.2016 11:28 24,6 C 72 % 1014,5 hPa 0,0 l/m 8,3 km/h (2 Bft) W-SW 242 2 min 0,000 mm 5,6 UV-I 804 W/m 19,2 C 24,1 C 16,1 km/h (3 Bft) 97,37 %
23.07.2016 11:30 24,8 C 67 % 1014,6 hPa 0,0 l/m 4,0 km/h (1 Bft) W 267 2 min 0,000 mm 5,2 UV-I 736 W/m 18,2 C 24,8 C 6,4 km/h (2 Bft) 100,00 %
23.07.2016 11:32 24,7 C 68 % 1014,5 hPa 0,0 l/m 3,4 km/h (1 Bft) S 191 2 min 0,000 mm 5,7 UV-I 776 W/m 18,4 C 24,7 C 4,8 km/h (1 Bft) 98,11 %
23.07.2016 11:34 24,8 C 68 % 1014,5 hPa 0,0 l/m 8,4 km/h (2 Bft) SW 223 2 min 0,000 mm 4,6 UV-I 803 W/m 18,5 C 24,3 C 11,3 km/h (2 Bft) 100,00 %
23.07.2016 11:36 24,8 C 67 % 1014,6 hPa 0,0 l/m 7,1 km/h (2 Bft) W-SW 248 2 min 0,000 mm 5,3 UV-I 806 W/m 18,2 C 24,6 C 11,3 km/h (2 Bft) 100,00 %
23.07.2016 11:38 24,8 C 66 % 1014,6 hPa 0,0 l/m 6,4 km/h (2 Bft) W-SW 252 2 min 0,000 mm 5,6 UV-I 799 W/m 18,0 C 24,8 C 11,3 km/h (2 Bft) 98,21 %
23.07.2016 11:40 24,8 C 67 % 1014,6 hPa 0,0 l/m 4,3 km/h (1 Bft) W 272 2 min 0,000 mm 4,1 UV-I 795 W/m 18,2 C 24,8 C 8,0 km/h (2 Bft) 95,45 %
23.07.2016 11:42 24,9 C 65 % 1014,6 hPa 0,0 l/m 2,4 km/h (1 Bft) S-SW 207 2 min 0,000 mm 5,5 UV-I 795 W/m 17,9 C 24,9 C 4,8 km/h (1 Bft) 98,00 %
23.07.2016 11:44 25,1 C 66 % 1014,5 hPa 0,0 l/m 3,0 km/h (1 Bft) SO 141 2 min 0,000 mm 5,8 UV-I 797 W/m 18,3 C 25,1 C 4,8 km/h (1 Bft) 96,00 %
23.07.2016 11:46 25,1 C 64 % 1014,5 hPa 0,0 l/m 2,6 km/h (1 Bft) O-NO 72 2 min 0,000 mm 6,0 UV-I 790 W/m 17,8 C 25,1 C 6,4 km/h (2 Bft) 100,00 %
23.07.2016 11:48 25,2 C 66 % 1014,5 hPa 0,0 l/m 3,0 km/h (1 Bft) O 101 2 min 0,000 mm 6,0 UV-I 788 W/m 18,4 C 25,2 C 4,8 km/h (1 Bft) 96,88 %
23.07.2016 11:50 25,4 C 68 % 1014,5 hPa 0,0 l/m 3,3 km/h (1 Bft) S-SO 147 2 min 0,000 mm 6,0 UV-I 792 W/m 19,1 C 25,4 C 6,4 km/h (2 Bft) 97,73 %
23.07.2016 11:52 25,4 C 64 % 1014,4 hPa 0,0 l/m 2,8 km/h (1 Bft) O-SO 113 2 min 0,000 mm 5,7 UV-I 794 W/m 18,1 C 25,4 C 4,8 km/h (1 Bft) 96,00 %
23.07.2016 11:54 25,4 C 65 % 1014,4 hPa 0,0 l/m 2,5 km/h (1 Bft) N-NO 28 2 min 0,000 mm 5,9 UV-I 794 W/m 18,3 C 25,4 C 4,8 km/h (1 Bft) 97,87 %
23.07.2016 11:56 25,5 C 65 % 1014,4 hPa 0,0 l/m 1,7 km/h (1 Bft) N-NO 28 2 min 0,000 mm 6,1 UV-I 797 W/m 18,4 C 25,5 C 3,2 km/h (1 Bft) 98,00 %
23.07.2016 11:58 25,6 C 64 % 1014,4 hPa 0,0 l/m 3,3 km/h (1 Bft) NO 42 2 min 0,000 mm 5,7 UV-I 799 W/m 18,3 C 25,6 C 4,8 km/h (1 Bft) 97,44 %
23.07.2016 12:00 25,7 C 66 % 1014,3 hPa 0,0 l/m 1,8 km/h (1 Bft) W 271 2 min 0,432 mm 6,2 UV-I 804 W/m 18,9 C 25,7 C 4,8 km/h (1 Bft) 98,00 %
23.07.2016 12:02 25,8 C 62 % 1014,4 hPa 0,0 l/m 1,9 km/h (1 Bft) W 271 2 min 0,000 mm 6,2 UV-I 803 W/m 18,0 C 25,8 C 3,2 km/h (1 Bft) 93,62 %
23.07.2016 12:04 25,8 C 68 % 1014,3 hPa 0,0 l/m 2,0 km/h (1 Bft) N-NW 346 2 min 0,000 mm 6,2 UV-I 808 W/m 19,4 C 25,8 C 4,8 km/h (1 Bft) 97,56 %
23.07.2016 12:06 26,2 C 62 % 1014,3 hPa 0,0 l/m 1,2 km/h (1 Bft) N 350 2 min 0,000 mm 6,3 UV-I 812 W/m 18,3 C 26,2 C 4,8 km/h (1 Bft) 98,00 %
23.07.2016 12:08 26,3 C 61 % 1014,4 hPa 0,0 l/m 2,6 km/h (1 Bft) NO 55 2 min 0,000 mm 6,3 UV-I 810 W/m 18,2 C 26,3 C 4,8 km/h (1 Bft) 98,11 %
23.07.2016 12:10 26,1 C 63 % 1014,4 hPa 0,0 l/m 4,8 km/h (1 Bft) NO 48 2 min 0,000 mm 6,3 UV-I 813 W/m 18,5 C 26,1 C 8,0 km/h (2 Bft) 97,73 %
23.07.2016 12:12 26,2 C 64 % 1014,4 hPa 0,0 l/m 3,0 km/h (1 Bft) NW 322 2 min 0,000 mm 6,3 UV-I 814 W/m 18,8 C 26,2 C 6,4 km/h (2 Bft) 100,00 %
23.07.2016 12:14 26,4 C 63 % 1014,3 hPa 0,0 l/m 2,7 km/h (1 Bft) N-NW 327 2 min 0,000 mm 6,4 UV-I 814 W/m 18,8 C 26,4 C 6,4 km/h (2 Bft) 95,74 %
23.07.2016 12:16 26,4 C 61 % 1014,4 hPa 0,0 l/m 3,2 km/h (1 Bft) NW 325 2 min 0,000 mm 6,4 UV-I 818 W/m 18,3 C 26,4 C 8,0 km/h (2 Bft) 100,00 %
23.07.2016 12:18 26,4 C 60 % 1014,4 hPa 0,0 l/m 2,6 km/h (1 Bft) N-NW 346 2 min 0,000 mm 6,4 UV-I 823 W/m 18,0 C 26,4 C 6,4 km/h (2 Bft) 100,00 %
23.07.2016 12:20 26,4 C 60 % 1014,4 hPa 0,0 l/m 5,2 km/h (1 Bft) W-NW 300 2 min 0,000 mm 6,4 UV-I 831 W/m 18,0 C 26,4 C 12,9 km/h (3 Bft) 98,00 %
23.07.2016 12:22 26,4 C 59 % 1014,4 hPa 0,0 l/m 3,3 km/h (1 Bft) W 260 2 min 0,000 mm 6,4 UV-I 835 W/m 17,7 C 26,4 C 6,4 km/h (2 Bft) 100,00 %
23.07.2016 12:24 26,2 C 60 % 1014,5 hPa 0,0 l/m 6,1 km/h (2 Bft) SW 230 2 min 0,000 mm 6,4 UV-I 821 W/m 17,8 C 26,2 C 12,9 km/h (3 Bft) 100,00 %
23.07.2016 12:26 26,0 C 61 % 1014,5 hPa 0,0 l/m 5,6 km/h (1 Bft) S 182 2 min 0,000 mm 6,5 UV-I 828 W/m 17,9 C 26,0 C 8,0 km/h (2 Bft) 100,00 %
23.07.2016 12:28 26,1 C 61 % 1014,5 hPa 0,0 l/m 5,5 km/h (1 Bft) W-SW 244 2 min 0,000 mm 6,5 UV-I 817 W/m 18,0 C 26,1 C 9,7 km/h (2 Bft) 100,00 %
23.07.2016 12:30 26,2 C 64 % 1014,4 hPa 0,0 l/m 7,1 km/h (2 Bft) SW 236 2 min 0,000 mm 6,5 UV-I 824 W/m 18,8 C 26,1 C 12,9 km/h (3 Bft) 100,00 %
23.07.2016 12:32 26,2 C 63 % 1014,4 hPa 0,0 l/m 5,0 km/h (1 Bft) S-SW 201 2 min 0,000 mm 6,5 UV-I 827 W/m 18,6 C 26,2 C 6,4 km/h (2 Bft) 100,00 %
23.07.2016 12:34 26,2 C 62 % 1014,4 hPa 0,0 l/m 3,0 km/h (1 Bft) S-SW 207 2 min 0,000 mm 6,5 UV-I 824 W/m 18,3 C 26,2 C 6,4 km/h (2 Bft) 98,00 %
23.07.2016 12:36 26,2 C 61 % 1014,3 hPa 0,0 l/m 4,8 km/h (1 Bft) S 169 2 min 0,000 mm 6,6 UV-I 831 W/m 18,1 C 26,2 C 9,7 km/h (2 Bft) 100,00 %
23.07.2016 12:38 25,9 C 60 % 1014,3 hPa 0,0 l/m 3,1 km/h (1 Bft) SW 221 2 min 0,000 mm 6,6 UV-I 840 W/m 17,5 C 25,9 C 9,7 km/h (2 Bft) 100,00 %
23.07.2016 12:40 25,9 C 61 % 1014,4 hPa 0,0 l/m 4,8 km/h (1 Bft) S 190 2 min 0,000 mm 6,5 UV-I 821 W/m 17,8 C 25,9 C 8,0 km/h (2 Bft) 100,00 %
23.07.2016 12:42 25,9 C 62 % 1014,4 hPa 0,0 l/m 4,5 km/h (1 Bft) S-SW 192 2 min 0,000 mm 6,4 UV-I 777 W/m 18,0 C 25,9 C 8,0 km/h (2 Bft) 100,00 %
23.07.2016 12:44 26,0 C 62 % 1014,3 hPa 0,0 l/m 3,3 km/h (1 Bft) S-SW 194 2 min 0,000 mm 6,5 UV-I 813 W/m 18,1 C 26,0 C 4,8 km/h (1 Bft) 100,00 %
23.07.2016 12:46 26,0 C 61 % 1014,3 hPa 0,0 l/m 1,4 km/h (1 Bft) S-SO 160 2 min 0,000 mm 6,7 UV-I 832 W/m 17,9 C 26,0 C 3,2 km/h (1 Bft) 100,00 %
23.07.2016 12:48 26,0 C 60 % 1014,3 hPa 0,0 l/m 1,8 km/h (1 Bft) S-SW 198 2 min 0,000 mm 6,8 UV-I 860 W/m 17,6 C 26,0 C 4,8 km/h (1 Bft) 100,00 %
23.07.2016 12:50 26,0 C 58 % 1014,3 hPa 0,0 l/m 1,5 km/h (1 Bft) W-SW 240 2 min 0,000 mm 6,8 UV-I 858 W/m 17,1 C 26,0 C 3,2 km/h (1 Bft) 100,00 %
23.07.2016 12:52 26,1 C 58 % 1014,3 hPa 0,0 l/m 1,4 km/h (1 Bft) W-SW 244 2 min 0,000 mm 6,8 UV-I 855 W/m 17,2 C 26,1 C 3,2 km/h (1 Bft) 100,00 %
23.07.2016 12:54 26,1 C 60 % 1014,3 hPa 0,0 l/m 1,4 km/h (1 Bft) W 261 2 min 0,000 mm 6,7 UV-I 855 W/m 17,7 C 26,1 C 3,2 km/h (1 Bft) 100,00 %
23.07.2016 12:56 26,1 C 58 % 1014,3 hPa 0,0 l/m 1,3 km/h (1 Bft) W-SW 252 2 min 0,000 mm 6,8 UV-I 858 W/m 17,2 C 26,1 C 3,2 km/h (1 Bft) 98,00 %
23.07.2016 12:58 26,2 C 58 % 1014,3 hPa 0,0 l/m 2,2 km/h (1 Bft) W-SW 252 2 min 0,000 mm 6,7 UV-I 858 W/m 17,3 C 26,2 C 3,2 km/h (1 Bft) 100,00 %
23.07.2016 13:00 26,3 C 60 % 1014,2 hPa 0,0 l/m 1,7 km/h (1 Bft) S-SO 162 2 min 0,000 mm 6,7 UV-I 855 W/m 17,9 C 26,3 C 6,4 km/h (2 Bft) 97,87 %
23.07.2016 13:02 26,6 C 61 % 1014,2 hPa 0,0 l/m 4,1 km/h (1 Bft) S-SO 148 2 min 0,533 mm 6,5 UV-I 816 W/m 18,4 C 26,6 C 8,0 km/h (2 Bft) 97,56 %
23.07.2016 13:04 26,6 C 58 % 1014,2 hPa 0,0 l/m 2,6 km/h (1 Bft) S-SO 159 2 min 0,000 mm 6,6 UV-I 818 W/m 17,6 C 26,6 C 6,4 km/h (2 Bft) 100,00 %
23.07.2016 13:06 26,6 C 62 % 1014,3 hPa 0,0 l/m 4,7 km/h (1 Bft) S 182 2 min 0,000 mm 6,6 UV-I 831 W/m 18,7 C 26,6 C 8,0 km/h (2 Bft) 100,00 %
23.07.2016 13:08 26,6 C 62 % 1014,2 hPa 0,0 l/m 3,5 km/h (1 Bft) W 269 2 min 0,000 mm 6,6 UV-I 827 W/m 18,7 C 26,6 C 9,7 km/h (2 Bft) 100,00 %
23.07.2016 13:10 26,7 C 60 % 1014,2 hPa 0,0 l/m 4,6 km/h (1 Bft) S-SW 198 2 min 0,000 mm 6,7 UV-I 858 W/m 18,3 C 26,7 C 9,7 km/h (2 Bft) 100,00 %
23.07.2016 13:12 26,6 C 59 % 1014,3 hPa 0,0 l/m 4,4 km/h (1 Bft) S 188 2 min 0,000 mm 6,6 UV-I 808 W/m 17,9 C 26,6 C 6,4 km/h (2 Bft) 100,00 %
23.07.2016 13:14 26,5 C 58 % 1014,3 hPa 0,0 l/m 2,7 km/h (1 Bft) O 99 2 min 0,000 mm 6,4 UV-I 784 W/m 17,5 C 26,5 C 8,0 km/h (2 Bft) 100,00 %
23.07.2016 13:16 26,5 C 59 % 1014,2 hPa 0,0 l/m 4,1 km/h (1 Bft) NO 39 2 min 0,000 mm 6,7 UV-I 850 W/m 17,8 C 26,5 C 8,0 km/h (2 Bft) 100,00 %
23.07.2016 13:18 26,6 C 63 % 1014,2 hPa 0,0 l/m 5,0 km/h (1 Bft) NO 40 2 min 0,000 mm 6,7 UV-I 851 W/m 19,0 C 26,6 C 6,4 km/h (2 Bft) 100,00 %
23.07.2016 13:20 26,7 C 58 % 1014,2 hPa 0,0 l/m 2,6 km/h (1 Bft) W-SW 250 2 min 0,000 mm 6,7 UV-I 850 W/m 17,7 C 26,7 C 4,8 km/h (1 Bft) 100,00 %
23.07.2016 13:22 26,6 C 61 % 1014,2 hPa 0,0 l/m 2,7 km/h (1 Bft) N-NO 19 2 min 0,000 mm 6,7 UV-I 849 W/m 18,4 C 26,6 C 6,4 km/h (2 Bft) 100,00 %
23.07.2016 13:24 26,8 C 64 % 1014,2 hPa 0,0 l/m 4,3 km/h (1 Bft) N 5 2 min 0,000 mm 6,8 UV-I 866 W/m 19,4 C 26,8 C 6,4 km/h (2 Bft) 100,00 %
23.07.2016 13:26 26,9 C 59 % 1014,2 hPa 0,0 l/m 1,4 km/h (1 Bft) W-SW 249 2 min 0,000 mm 6,8 UV-I 871 W/m 18,2 C 26,9 C 3,2 km/h (1 Bft) 100,00 %
23.07.2016 13:28 27,1 C 58 % 1014,1 hPa 0,0 l/m 1,5 km/h (1 Bft) W-SW 249 2 min 0,000 mm 6,8 UV-I 868 W/m 18,1 C 27,1 C 3,2 km/h (1 Bft) 100,00 %
23.07.2016 13:30 27,3 C 60 % 1014,1 hPa 0,0 l/m 3,1 km/h (1 Bft) SO 132 2 min 0,000 mm 6,8 UV-I 869 W/m 18,8 C 27,3 C 6,4 km/h (2 Bft) 97,87 %
23.07.2016 13:32 27,3 C 57 % 1014,1 hPa 0,0 l/m 5,2 km/h (1 Bft) SO 142 2 min 0,000 mm 6,8 UV-I 867 W/m 18,0 C 27,3 C 9,7 km/h (2 Bft) 96,00 %
23.07.2016 13:34 27,1 C 57 % 1014,0 hPa 0,0 l/m 3,3 km/h (1 Bft) S 190 2 min 0,000 mm 6,8 UV-I 880 W/m 17,8 C 27,1 C 8,0 km/h (2 Bft) 97,37 %
23.07.2016 13:36 27,1 C 58 % 1014,0 hPa 0,0 l/m 4,1 km/h (1 Bft) S 189 2 min 0,000 mm 6,8 UV-I 878 W/m 18,1 C 27,1 C 12,9 km/h (3 Bft) 94,74 %
23.07.2016 13:38 27,1 C 58 % 1014,0 hPa 0,0 l/m 7,4 km/h (2 Bft) SW 215 2 min 0,000 mm 6,8 UV-I 877 W/m 18,1 C 26,9 C 11,3 km/h (2 Bft) 98,46 %
23.07.2016 13:40 27,1 C 57 % 1014,0 hPa 0,0 l/m 4,0 km/h (1 Bft) SW 225 2 min 0,000 mm 6,7 UV-I 880 W/m 17,8 C 27,1 C 6,4 km/h (2 Bft) 97,37 %
23.07.2016 13:42 27,1 C 60 % 1014,0 hPa 0,0 l/m 8,1 km/h (2 Bft) S-SW 213 2 min 0,000 mm 6,8 UV-I 898 W/m 18,6 C 26,8 C 11,3 km/h (2 Bft) 95,74 %
23.07.2016 13:44 27,4 C 61 % 1014,0 hPa 0,0 l/m 6,2 km/h (2 Bft) W 269 2 min 0,000 mm 6,5 UV-I 862 W/m 19,2 C 27,4 C 11,3 km/h (2 Bft) 96,00 %
23.07.2016 13:46 27,4 C 56 % 1014,0 hPa 0,0 l/m 3,9 km/h (1 Bft) W 277 2 min 0,000 mm 6,5 UV-I 855 W/m 17,8 C 27,4 C 9,7 km/h (2 Bft) 96,00 %
23.07.2016 13:48 27,2 C 57 % 1014,0 hPa 0,0 l/m 0,7 km/h (0 Bft) W 277 2 min 0,000 mm 6,3 UV-I 811 W/m 17,9 C 27,2 C 1,6 km/h (1 Bft) 97,56 %
23.07.2016 13:50 27,2 C 56 % 1013,9 hPa 0,0 l/m 1,3 km/h (1 Bft) SW 232 2 min 0,000 mm 6,0 UV-I 758 W/m 17,6 C 27,2 C 3,2 km/h (1 Bft) 100,00 %
23.07.2016 13:52 27,2 C 60 % 1013,9 hPa 0,0 l/m 4,9 km/h (1 Bft) NW 306 2 min 0,000 mm 5,8 UV-I 716 W/m 18,7 C 27,2 C 9,7 km/h (2 Bft) 97,14 %
23.07.2016 13:54 27,3 C 58 % 1013,9 hPa 0,0 l/m 2,4 km/h (1 Bft) N-NW 346 2 min 0,000 mm 6,1 UV-I 770 W/m 18,3 C 27,3 C 4,8 km/h (1 Bft) 97,44 %
23.07.2016 13:56 27,4 C 60 % 1013,8 hPa 0,0 l/m 3,5 km/h (1 Bft) N 351 2 min 0,000 mm 6,5 UV-I 861 W/m 18,9 C 27,4 C 8,0 km/h (2 Bft) 98,00 %
23.07.2016 13:58 27,6 C 60 % 1013,8 hPa 0,0 l/m 2,2 km/h (1 Bft) W 270 2 min 0,000 mm 6,3 UV-I 830 W/m 19,1 C 27,6 C 6,4 km/h (2 Bft) 98,00 %
23.07.2016 14:00 27,6 C 57 % 1013,8 hPa 0,0 l/m 4,9 km/h (1 Bft) NW 322 2 min 0,559 mm 6,2 UV-I 806 W/m 18,3 C 27,6 C 8,0 km/h (2 Bft) 98,00 %
23.07.2016 14:02 27,7 C 60 % 1013,8 hPa 0,0 l/m 2,5 km/h (1 Bft) N-NW 342 2 min 0,000 mm 6,3 UV-I 832 W/m 19,2 C 27,7 C 6,4 km/h (2 Bft) 96,00 %
23.07.2016 14:04 27,8 C 58 % 1013,7 hPa 0,0 l/m 2,7 km/h (1 Bft) N-NW 329 2 min 0,000 mm 6,4 UV-I 844 W/m 18,8 C 27,8 C 4,8 km/h (1 Bft) 100,00 %
23.07.2016 14:06 27,7 C 55 % 1013,7 hPa 0,0 l/m 3,2 km/h (1 Bft) S-SW 213 2 min 0,000 mm 5,8 UV-I 767 W/m 17,8 C 27,7 C 4,8 km/h (1 Bft) 100,00 %
23.07.2016 14:08 27,3 C 60 % 1013,8 hPa 0,0 l/m 2,9 km/h (1 Bft) S 187 2 min 0,000 mm 5,1 UV-I 619 W/m 18,8 C 27,3 C 4,8 km/h (1 Bft) 100,00 %
23.07.2016 14:10 27,5 C 61 % 1013,7 hPa 0,0 l/m 5,3 km/h (1 Bft) NO 36 2 min 0,000 mm 5,1 UV-I 599 W/m 19,3 C 27,5 C 12,9 km/h (3 Bft) 98,00 %
23.07.2016 14:12 27,7 C 60 % 1013,7 hPa 0,0 l/m 5,0 km/h (1 Bft) NO 55 2 min 0,000 mm 5,7 UV-I 750 W/m 19,2 C 27,7 C 8,0 km/h (2 Bft) 100,00 %
23.07.2016 14:14 27,8 C 60 % 1013,7 hPa 0,0 l/m 3,8 km/h (1 Bft) N-NW 333 2 min 0,000 mm 6,1 UV-I 834 W/m 19,3 C 27,8 C 6,4 km/h (2 Bft) 100,00 %
23.07.2016 14:16 27,8 C 57 % 1013,7 hPa 0,0 l/m 3,4 km/h (1 Bft) NO 40 2 min 0,000 mm 6,3 UV-I 859 W/m 18,5 C 27,8 C 8,0 km/h (2 Bft) 100,00 %
23.07.2016 14:18 27,9 C 58 % 1013,7 hPa 0,0 l/m 6,2 km/h (2 Bft) N-NO 25 2 min 0,000 mm 6,3 UV-I 862 W/m 18,9 C 27,9 C 12,9 km/h (3 Bft) 97,56 %
23.07.2016 14:20 28,2 C 57 % 1013,7 hPa 0,0 l/m 5,1 km/h (1 Bft) N-NO 18 2 min 0,000 mm 6,3 UV-I 862 W/m 18,9 C 28,2 C 11,3 km/h (2 Bft) 100,00 %
23.07.2016 14:22 28,1 C 58 % 1013,7 hPa 0,0 l/m 4,8 km/h (1 Bft) N-NO 20 2 min 0,000 mm 6,2 UV-I 836 W/m 19,0 C 28,1 C 8,0 km/h (2 Bft) 98,00 %
23.07.2016 14:26 28,1 C 57 % 1013,8 hPa 0,0 l/m 2,3 km/h (1 Bft) NO 36 4 min 0,000 mm 5,9 UV-I 779 W/m 18,8 C 28,1 C 4,8 km/h (1 Bft) 98,89 %
23.07.2016 14:28 27,9 C 56 % 1013,8 hPa 0,0 l/m 4,6 km/h (1 Bft) O-NO 67 2 min 0,000 mm 5,6 UV-I 738 W/m 18,3 C 27,9 C 6,4 km/h (2 Bft) 100,00 %
23.07.2016 14:30 28,0 C 61 % 1013,8 hPa 0,0 l/m 6,2 km/h (2 Bft) NO 56 2 min 0,000 mm 5,9 UV-I 780 W/m 19,8 C 28,0 C 8,0 km/h (2 Bft) 100,00 %
23.07.2016 14:32 28,0 C 56 % 1013,8 hPa 0,0 l/m 3,5 km/h (1 Bft) SO 142 2 min 0,000 mm 6,0 UV-I 814 W/m 18,4 C 28,0 C 8,0 km/h (2 Bft) 100,00 %
23.07.2016 14:34 28,0 C 60 % 1013,8 hPa 0,0 l/m 2,7 km/h (1 Bft) SO 142 2 min 0,000 mm 5,9 UV-I 805 W/m 19,5 C 28,0 C 4,8 km/h (1 Bft) 100,00 %
23.07.2016 14:36 28,1 C 55 % 1013,8 hPa 0,0 l/m 4,7 km/h (1 Bft) S-SW 192 2 min 0,000 mm 5,8 UV-I 808 W/m 18,2 C 28,1 C 9,7 km/h (2 Bft) 100,00 %
23.07.2016 14:38 28,1 C 58 % 1013,8 hPa 0,0 l/m 4,0 km/h (1 Bft) W-SW 250 2 min 0,000 mm 5,8 UV-I 815 W/m 19,0 C 28,1 C 8,0 km/h (2 Bft) 98,00 %
23.07.2016 14:40 28,1 C 55 % 1013,8 hPa 0,0 l/m 5,8 km/h (2 Bft) S-SW 193 2 min 0,000 mm 5,8 UV-I 805 W/m 18,2 C 28,1 C 11,3 km/h (2 Bft) 100,00 %
23.07.2016 14:42 27,9 C 53 % 1013,8 hPa 0,0 l/m 6,8 km/h (2 Bft) SW 223 2 min 0,000 mm 5,6 UV-I 784 W/m 17,4 C 27,8 C 11,3 km/h (2 Bft) 100,00 %
23.07.2016 14:44 27,9 C 54 % 1013,8 hPa 0,0 l/m 5,2 km/h (1 Bft) S-SW 198 2 min 0,000 mm 5,5 UV-I 783 W/m 17,7 C 27,9 C 8,0 km/h (2 Bft) 100,00 %
23.07.2016 14:46 27,9 C 57 % 1013,7 hPa 0,0 l/m 5,2 km/h (1 Bft) W-SW 252 2 min 0,000 mm 5,7 UV-I 808 W/m 18,6 C 27,9 C 8,0 km/h (2 Bft) 100,00 %
23.07.2016 14:48 27,9 C 54 % 1013,8 hPa 0,0 l/m 2,7 km/h (1 Bft) W 279 2 min 0,000 mm 5,7 UV-I 807 W/m 17,7 C 27,9 C 6,4 km/h (2 Bft) 98,00 %
23.07.2016 14:50 27,9 C 54 % 1013,7 hPa 0,0 l/m 1,9 km/h (1 Bft) SW 215 2 min 0,000 mm 5,6 UV-I 802 W/m 17,7 C 27,9 C 4,8 km/h (1 Bft) 100,00 %
23.07.2016 14:52 28,1 C 58 % 1013,7 hPa 0,0 l/m 2,3 km/h (1 Bft) S-SW 197 2 min 0,000 mm 5,5 UV-I 790 W/m 19,0 C 28,1 C 6,4 km/h (2 Bft) 100,00 %
23.07.2016 14:54 28,3 C 57 % 1013,7 hPa 0,0 l/m 4,0 km/h (1 Bft) S 178 2 min 0,000 mm 5,4 UV-I 769 W/m 18,9 C 28,3 C 6,4 km/h (2 Bft) 100,00 %
23.07.2016 14:56 28,5 C 57 % 1013,8 hPa 0,0 l/m 5,8 km/h (2 Bft) S 171 2 min 0,000 mm 5,1 UV-I 695 W/m 19,1 C 28,5 C 9,7 km/h (2 Bft) 94,74 %
23.07.2016 14:58 28,3 C 54 % 1013,8 hPa 0,0 l/m 6,3 km/h (2 Bft) SW 229 2 min 0,000 mm 4,9 UV-I 663 W/m 18,1 C 28,3 C 11,3 km/h (2 Bft) 97,73 %
23.07.2016 15:00 28,1 C 57 % 1013,8 hPa 0,0 l/m 7,0 km/h (2 Bft) W-SW 239 2 min 0,534 mm 4,8 UV-I 652 W/m 18,8 C 28,0 C 9,7 km/h (2 Bft) 100,00 %
23.07.2016 15:02 28,2 C 55 % 1013,8 hPa 0,0 l/m 6,3 km/h (2 Bft) W-SW 243 2 min 0,000 mm 5,2 UV-I 761 W/m 18,3 C 28,2 C 8,0 km/h (2 Bft) 100,00 %
23.07.2016 15:04 28,2 C 55 % 1013,7 hPa 0,0 l/m 4,8 km/h (1 Bft) W 265 2 min 0,000 mm 5,3 UV-I 781 W/m 18,3 C 28,2 C 6,4 km/h (2 Bft) 100,00 %
23.07.2016 15:06 28,1 C 56 % 1013,7 hPa 0,0 l/m 1,9 km/h (1 Bft) W 272 2 min 0,000 mm 5,3 UV-I 790 W/m 18,5 C 28,1 C 3,2 km/h (1 Bft) 100,00 %
23.07.2016 15:08 28,2 C 55 % 1013,7 hPa 0,0 l/m 4,1 km/h (1 Bft) S-SW 193 2 min 0,000 mm 5,1 UV-I 759 W/m 18,3 C 28,2 C 6,4 km/h (2 Bft) 98,11 %
23.07.2016 15:10 28,3 C 54 % 1013,7 hPa 0,0 l/m 3,4 km/h (1 Bft) S-SO 159 2 min 0,000 mm 4,9 UV-I 728 W/m 18,1 C 28,3 C 6,4 km/h (2 Bft) 97,73 %
23.07.2016 15:12 28,2 C 54 % 1013,7 hPa 0,0 l/m 4,5 km/h (1 Bft) O 97 2 min 0,000 mm 4,8 UV-I 706 W/m 18,0 C 28,2 C 9,7 km/h (2 Bft) 98,00 %
23.07.2016 15:14 28,3 C 54 % 1013,6 hPa 0,0 l/m 3,5 km/h (1 Bft) O-SO 111 2 min 0,000 mm 4,8 UV-I 732 W/m 18,1 C 28,3 C 6,4 km/h (2 Bft) 100,00 %
23.07.2016 15:16 28,5 C 55 % 1013,6 hPa 0,0 l/m 5,4 km/h (1 Bft) O-SO 116 2 min 0,000 mm 4,8 UV-I 727 W/m 18,6 C 28,5 C 11,3 km/h (2 Bft) 100,00 %
23.07.2016 15:18 28,4 C 54 % 1013,6 hPa 0,0 l/m 4,5 km/h (1 Bft) SW 218 2 min 0,000 mm 4,7 UV-I 715 W/m 18,2 C 28,4 C 9,7 km/h (2 Bft) 100,00 %
23.07.2016 15:20 28,2 C 52 % 1013,6 hPa 0,0 l/m 3,3 km/h (1 Bft) W-SW 246 2 min 0,000 mm 4,6 UV-I 704 W/m 17,4 C 28,2 C 4,8 km/h (1 Bft) 100,00 %
23.07.2016 15:22 28,1 C 54 % 1013,5 hPa 0,0 l/m 2,5 km/h (1 Bft) W-SW 247 2 min 0,000 mm 4,5 UV-I 675 W/m 17,9 C 28,1 C 4,8 km/h (1 Bft) 98,00 %
23.07.2016 15:24 28,2 C 55 % 1013,5 hPa 0,0 l/m 2,9 km/h (1 Bft) O 98 2 min 0,000 mm 4,2 UV-I 598 W/m 18,3 C 28,2 C 9,7 km/h (2 Bft) 100,00 %
23.07.2016 15:26 28,2 C 52 % 1013,5 hPa 0,0 l/m 6,4 km/h (2 Bft) O-SO 107 2 min 0,000 mm 4,1 UV-I 613 W/m 17,4 C 28,2 C 9,7 km/h (2 Bft) 96,00 %
23.07.2016 15:28 28,2 C 52 % 1013,5 hPa 0,0 l/m 5,6 km/h (1 Bft) O 101 2 min 0,000 mm 4,2 UV-I 666 W/m 17,4 C 28,2 C 8,0 km/h (2 Bft) 96,15 %
23.07.2016 15:30 28,2 C 52 % 1013,5 hPa 0,0 l/m 3,7 km/h (1 Bft) SO 132 2 min 0,000 mm 4,1 UV-I 653 W/m 17,4 C 28,2 C 8,0 km/h (2 Bft) 100,00 %
23.07.2016 15:32 28,3 C 52 % 1013,5 hPa 0,0 l/m 4,3 km/h (1 Bft) O 86 2 min 0,000 mm 4,0 UV-I 629 W/m 17,5 C 28,3 C 8,0 km/h (2 Bft) 94,44 %
23.07.2016 15:34 28,2 C 52 % 1013,5 hPa 0,0 l/m 3,6 km/h (1 Bft) O-SO 112 2 min 0,000 mm 3,6 UV-I 602 W/m 17,4 C 28,2 C 8,0 km/h (2 Bft) 97,87 %
23.07.2016 15:36 28,1 C 55 % 1013,5 hPa 0,0 l/m 5,8 km/h (2 Bft) S-SW 192 2 min 0,000 mm 3,2 UV-I 445 W/m 18,2 C 28,1 C 12,9 km/h (3 Bft) 97,37 %
23.07.2016 15:38 28,1 C 54 % 1013,4 hPa 0,0 l/m 4,8 km/h (1 Bft) S-SO 162 2 min 0,000 mm 3,2 UV-I 553 W/m 17,9 C 28,1 C 11,3 km/h (2 Bft) 96,43 %
23.07.2016 15:40 28,2 C 52 % 1013,4 hPa 0,0 l/m 3,2 km/h (1 Bft) S 169 2 min 0,000 mm 3,8 UV-I 623 W/m 17,4 C 28,2 C 8,0 km/h (2 Bft) 98,00 %
23.07.2016 15:42 28,2 C 56 % 1013,3 hPa 0,0 l/m 2,7 km/h (1 Bft) S 189 2 min 0,000 mm 3,6 UV-I 602 W/m 18,6 C 28,2 C 11,3 km/h (2 Bft) 97,14 %
23.07.2016 15:44 28,2 C 52 % 1013,3 hPa 0,0 l/m 6,4 km/h (2 Bft) S 181 2 min 0,000 mm 3,4 UV-I 521 W/m 17,4 C 28,2 C 9,7 km/h (2 Bft) 98,11 %
23.07.2016 15:46 28,2 C 52 % 1013,3 hPa 0,0 l/m 2,1 km/h (1 Bft) S 181 2 min 0,000 mm 3,3 UV-I 494 W/m 17,4 C 28,2 C 4,8 km/h (1 Bft) 97,56 %
23.07.2016 15:48 28,1 C 53 % 1013,3 hPa 0,0 l/m 1,6 km/h (1 Bft) S-SW 198 2 min 0,000 mm 3,3 UV-I 490 W/m 17,6 C 28,1 C 3,2 km/h (1 Bft) 96,00 %
23.07.2016 15:50 28,1 C 53 % 1013,3 hPa 0,0 l/m 2,2 km/h (1 Bft) S 175 2 min 0,000 mm 3,4 UV-I 544 W/m 17,6 C 28,1 C 4,8 km/h (1 Bft) 97,87 %
23.07.2016 15:52 28,3 C 54 % 1013,3 hPa 0,0 l/m 4,9 km/h (1 Bft) O-NO 60 2 min 0,000 mm 3,1 UV-I 473 W/m 18,1 C 28,3 C 8,0 km/h (2 Bft) 97,87 %
23.07.2016 15:54 28,3 C 52 % 1013,2 hPa 0,0 l/m 3,5 km/h (1 Bft) O-SO 111 2 min 0,000 mm 3,3 UV-I 469 W/m 17,5 C 28,3 C 6,4 km/h (2 Bft) 98,00 %
23.07.2016 15:56 28,2 C 57 % 1013,2 hPa 0,0 l/m 0,7 km/h (0 Bft) S-SO 160 2 min 0,000 mm 3,6 UV-I 653 W/m 18,9 C 28,2 C 3,2 km/h (1 Bft) 97,56 %
23.07.2016 15:58 28,4 C 56 % 1013,2 hPa 0,0 l/m 5,8 km/h (2 Bft) O-SO 103 2 min 0,000 mm 3,4 UV-I 586 W/m 18,8 C 28,4 C 11,3 km/h (2 Bft) 97,73 %
23.07.2016 16:00 28,4 C 53 % 1013,1 hPa 0,0 l/m 8,8 km/h (2 Bft) O-SO 111 2 min 0,000 mm 3,1 UV-I 510 W/m 17,9 C 28,1 C 12,9 km/h (3 Bft) 100,00 %
23.07.2016 16:02 28,3 C 55 % 1013,1 hPa 0,0 l/m 3,3 km/h (1 Bft) NO 54 0 min 0,431 mm 2,6 UV-I 315 W/m 18,4 C 28,3 C 6,4 km/h (2 Bft) 100,00 %
23.07.2016 16:04 28,2 C 55 % 1013,1 hPa 0,0 l/m 4,4 km/h (1 Bft) O-SO 105 0 min 0,000 mm 2,7 UV-I 371 W/m 18,3 C 28,2 C 8,0 km/h (2 Bft) 100,00 %
23.07.2016 16:06 28,3 C 53 % 1013,1 hPa 0,0 l/m 5,0 km/h (1 Bft) SO 142 2 min 0,000 mm 3,1 UV-I 539 W/m 17,8 C 28,3 C 9,7 km/h (2 Bft) 100,00 %
23.07.2016 16:08 28,3 C 55 % 1013,1 hPa 0,0 l/m 1,8 km/h (1 Bft) O-NO 69 2 min 0,000 mm 3,5 UV-I 665 W/m 18,4 C 28,3 C 12,9 km/h (3 Bft) 100,00 %
23.07.2016 16:10 28,6 C 52 % 1013,1 hPa 0,0 l/m 6,2 km/h (2 Bft) O-NO 76 2 min 0,000 mm 3,5 UV-I 649 W/m 17,8 C 28,6 C 9,7 km/h (2 Bft) 100,00 %
23.07.2016 16:12 28,6 C 53 % 1013,1 hPa 0,0 l/m 6,5 km/h (2 Bft) NO 36 2 min 0,000 mm 3,4 UV-I 625 W/m 18,1 C 28,6 C 8,0 km/h (2 Bft) 98,00 %
23.07.2016 16:14 28,7 C 53 % 1013,0 hPa 0,0 l/m 6,0 km/h (2 Bft) NO 51 2 min 0,000 mm 3,2 UV-I 573 W/m 18,2 C 28,7 C 9,7 km/h (2 Bft) 98,11 %
23.07.2016 16:16 28,7 C 52 % 1013,0 hPa 0,0 l/m 4,7 km/h (1 Bft) NO 53 2 min 0,000 mm 3,1 UV-I 564 W/m 17,8 C 28,7 C 8,0 km/h (2 Bft) 100,00 %
23.07.2016 16:18 28,5 C 53 % 1013,1 hPa 0,0 l/m 2,0 km/h (1 Bft) O-SO 114 2 min 0,000 mm 3,0 UV-I 540 W/m 18,0 C 28,5 C 4,8 km/h (1 Bft) 100,00 %
23.07.2016 16:20 28,4 C 52 % 1013,1 hPa 0,0 l/m 2,1 km/h (1 Bft) O-SO 114 2 min 0,000 mm 2,9 UV-I 513 W/m 17,6 C 28,4 C 4,8 km/h (1 Bft) 100,00 %
23.07.2016 16:22 28,5 C 54 % 1013,1 hPa 0,0 l/m 0,3 km/h (0 Bft) O-SO 114 2 min 0,000 mm 2,7 UV-I 445 W/m 18,3 C 28,5 C 1,6 km/h (1 Bft) 100,00 %
23.07.2016 16:24 28,6 C 53 % 1013,0 hPa 0,0 l/m 4,5 km/h (1 Bft) N-NO 30 2 min 0,000 mm 2,7 UV-I 448 W/m 18,1 C 28,6 C 8,0 km/h (2 Bft) 98,00 %
23.07.2016 16:26 28,6 C 51 % 1013,1 hPa 0,0 l/m 3,2 km/h (1 Bft) NO 36 2 min 0,000 mm 2,5 UV-I 408 W/m 17,4 C 28,6 C 6,4 km/h (2 Bft) 97,56 %
23.07.2016 16:28 28,6 C 51 % 1013,1 hPa 0,0 l/m 0,9 km/h (0 Bft) NO 49 2 min 0,000 mm 2,6 UV-I 451 W/m 17,4 C 28,6 C 3,2 km/h (1 Bft) 100,00 %
23.07.2016 16:30 28,4 C 51 % 1013,1 hPa 0,0 l/m 3,0 km/h (1 Bft) O-SO 114 2 min 0,000 mm 2,6 UV-I 458 W/m 17,3 C 28,4 C 9,7 km/h (2 Bft) 100,00 %
23.07.2016 16:32 28,3 C 51 % 1013,1 hPa 0,0 l/m 2,1 km/h (1 Bft) SO 142 2 min 0,000 mm 2,3 UV-I 365 W/m 17,2 C 28,3 C 4,8 km/h (1 Bft) 100,00 %
23.07.2016 16:34 28,3 C 53 % 1013,1 hPa 0,0 l/m 2,9 km/h (1 Bft) O-SO 116 0 min 0,000 mm 2,2 UV-I 334 W/m 17,8 C 28,3 C 4,8 km/h (1 Bft) 97,14 %
23.07.2016 16:36 28,3 C 56 % 1013,1 hPa 0,0 l/m 1,3 km/h (1 Bft) O-NO 59 0 min 0,000 mm 2,2 UV-I 313 W/m 18,7 C 28,3 C 4,8 km/h (1 Bft) 98,11 %
23.07.2016 16:38 28,3 C 53 % 1013,1 hPa 0,0 l/m 3,0 km/h (1 Bft) O-NO 57 0 min 0,000 mm 1,8 UV-I 233 W/m 17,8 C 28,3 C 6,4 km/h (2 Bft) 100,00 %
23.07.2016 16:40 28,2 C 56 % 1013,2 hPa 0,0 l/m 7,4 km/h (2 Bft) N-NO 19 0 min 0,000 mm 1,7 UV-I 206 W/m 18,6 C 28,0 C 9,7 km/h (2 Bft) 100,00 %
23.07.2016 16:42 28,0 C 55 % 1013,2 hPa 0,0 l/m 6,7 km/h (2 Bft) N-NO 29 0 min 0,000 mm 1,6 UV-I 195 W/m 18,1 C 28,0 C 8,0 km/h (2 Bft) 100,00 %
23.07.2016 16:44 27,9 C 55 % 1013,2 hPa 0,0 l/m 3,0 km/h (1 Bft) N-NO 20 0 min 0,000 mm 1,4 UV-I 186 W/m 18,0 C 27,9 C 8,0 km/h (2 Bft) 100,00 %
23.07.2016 16:46 27,8 C 55 % 1013,2 hPa 0,0 l/m 5,9 km/h (2 Bft) N-NO 16 0 min 0,000 mm 1,3 UV-I 177 W/m 17,9 C 27,8 C 12,9 km/h (3 Bft) 100,00 %
23.07.2016 16:48 27,8 C 56 % 1013,2 hPa 0,0 l/m 3,5 km/h (1 Bft) N-NO 30 0 min 0,000 mm 1,2 UV-I 172 W/m 18,2 C 27,8 C 6,4 km/h (2 Bft) 97,87 %
23.07.2016 16:50 27,8 C 58 % 1013,2 hPa 0,0 l/m 3,1 km/h (1 Bft) N-NO 31 0 min 0,000 mm 1,2 UV-I 176 W/m 18,8 C 27,8 C 4,8 km/h (1 Bft) 100,00 %
23.07.2016 16:52 27,7 C 56 % 1013,2 hPa 0,0 l/m 3,5 km/h (1 Bft) N-NO 31 0 min 0,000 mm 1,1 UV-I 186 W/m 18,1 C 27,7 C 4,8 km/h (1 Bft) 97,87 %
23.07.2016 16:54 27,7 C 54 % 1013,1 hPa 0,0 l/m 2,8 km/h (1 Bft) N-NO 31 0 min 0,000 mm 1,2 UV-I 196 W/m 17,5 C 27,7 C 4,8 km/h (1 Bft) 100,00 %
23.07.2016 16:56 27,7 C 55 % 1013,1 hPa 0,0 l/m 3,7 km/h (1 Bft) N-NO 28 0 min 0,000 mm 1,1 UV-I 204 W/m 17,8 C 27,7 C 4,8 km/h (1 Bft) 97,92 %
23.07.2016 16:58 27,7 C 59 % 1013,1 hPa 0,0 l/m 1,4 km/h (1 Bft) N-NO 26 0 min 0,000 mm 1,1 UV-I 206 W/m 18,9 C 27,7 C 3,2 km/h (1 Bft) 97,87 %
23.07.2016 17:00 27,7 C 59 % 1013,1 hPa 0,0 l/m 2,3 km/h (1 Bft) N-NO 24 0 min 0,280 mm 1,1 UV-I 204 W/m 18,9 C 27,7 C 4,8 km/h (1 Bft) 100,00 %
23.07.2016 17:02 27,7 C 59 % 1013,1 hPa 0,0 l/m 2,1 km/h (1 Bft) N-NO 13 0 min 0,000 mm 1,1 UV-I 202 W/m 18,9 C 27,7 C 8,0 km/h (2 Bft) 100,00 %
23.07.2016 17:04 27,7 C 59 % 1013,1 hPa 0,0 l/m 4,0 km/h (1 Bft) NO 46 0 min 0,000 mm 1,1 UV-I 200 W/m 18,9 C 27,7 C 8,0 km/h (2 Bft) 97,87 %
23.07.2016 17:06 27,6 C 60 % 1013,1 hPa 0,0 l/m 6,1 km/h (2 Bft) N-NO 29 0 min 0,000 mm 1,1 UV-I 200 W/m 19,1 C 27,6 C 9,7 km/h (2 Bft) 100,00 %
23.07.2016 17:08 27,5 C 59 % 1013,0 hPa 0,0 l/m 7,3 km/h (2 Bft) N-NO 12 0 min 0,000 mm 1,1 UV-I 204 W/m 18,8 C 27,3 C 11,3 km/h (2 Bft) 98,00 %
23.07.2016 17:10 27,5 C 60 % 1012,9 hPa 0,0 l/m 6,0 km/h (2 Bft) N-NO 17 0 min 0,000 mm 1,1 UV-I 208 W/m 19,0 C 27,5 C 9,7 km/h (2 Bft) 97,87 %
23.07.2016 17:12 27,5 C 60 % 1013,0 hPa 0,0 l/m 4,1 km/h (1 Bft) N-NO 31 0 min 0,000 mm 1,1 UV-I 214 W/m 19,0 C 27,5 C 8,0 km/h (2 Bft) 100,00 %
23.07.2016 17:14 27,6 C 59 % 1012,9 hPa 0,0 l/m 4,5 km/h (1 Bft) N 9 0 min 0,000 mm 1,1 UV-I 218 W/m 18,8 C 27,6 C 6,4 km/h (2 Bft) 97,87 %
23.07.2016 17:16 27,6 C 60 % 1012,9 hPa 0,0 l/m 4,7 km/h (1 Bft) NO 34 0 min 0,000 mm 1,1 UV-I 219 W/m 19,1 C 27,6 C 8,0 km/h (2 Bft) 94,74 %
23.07.2016 17:18 27,6 C 59 % 1012,9 hPa 0,0 l/m 4,8 km/h (1 Bft) N-NO 25 0 min 0,000 mm 1,1 UV-I 210 W/m 18,8 C 27,6 C 8,0 km/h (2 Bft) 98,00 %
23.07.2016 17:20 27,5 C 61 % 1012,9 hPa 0,0 l/m 2,9 km/h (1 Bft) N-NO 19 0 min 0,000 mm 1,0 UV-I 195 W/m 19,3 C 27,5 C 4,8 km/h (1 Bft) 97,87 %
23.07.2016 17:22 27,5 C 59 % 1012,9 hPa 0,0 l/m 4,3 km/h (1 Bft) N-NO 23 0 min 0,000 mm 1,0 UV-I 179 W/m 18,8 C 27,5 C 8,0 km/h (2 Bft) 97,87 %
23.07.2016 17:24 27,5 C 59 % 1012,9 hPa 0,0 l/m 1,7 km/h (1 Bft) N-NO 17 0 min 0,000 mm 0,9 UV-I 162 W/m 18,8 C 27,5 C 6,4 km/h (2 Bft) 95,74 %
23.07.2016 17:26 27,4 C 59 % 1012,9 hPa 0,0 l/m 1,8 km/h (1 Bft) N-NO 14 0 min 0,000 mm 0,8 UV-I 150 W/m 18,7 C 27,4 C 4,8 km/h (1 Bft) 97,92 %
23.07.2016 17:28 27,4 C 59 % 1012,9 hPa 0,0 l/m 1,2 km/h (1 Bft) N-NO 13 0 min 0,000 mm 0,8 UV-I 146 W/m 18,7 C 27,4 C 1,6 km/h (1 Bft) 97,87 %
23.07.2016 17:30 27,4 C 61 % 1012,9 hPa 0,0 l/m 3,0 km/h (1 Bft) N-NO 26 0 min 0,000 mm 0,8 UV-I 154 W/m 19,2 C 27,4 C 6,4 km/h (2 Bft) 95,74 %
23.07.2016 17:32 27,3 C 60 % 1012,8 hPa 0,0 l/m 4,7 km/h (1 Bft) N-NO 24 0 min 0,000 mm 0,8 UV-I 172 W/m 18,8 C 27,3 C 8,0 km/h (2 Bft) 98,00 %
23.07.2016 17:34 27,4 C 59 % 1012,8 hPa 0,0 l/m 3,6 km/h (1 Bft) N-NO 16 0 min 0,000 mm 0,9 UV-I 229 W/m 18,7 C 27,4 C 6,4 km/h (2 Bft) 95,74 %
23.07.2016 17:36 27,6 C 60 % 1012,8 hPa 0,0 l/m 2,2 km/h (1 Bft) N-NO 14 2 min 0,000 mm 1,1 UV-I 294 W/m 19,1 C 27,6 C 4,8 km/h (1 Bft) 95,74 %
23.07.2016 17:38 27,7 C 59 % 1012,8 hPa 0,0 l/m 4,5 km/h (1 Bft) N-NO 28 2 min 0,000 mm 1,2 UV-I 331 W/m 18,9 C 27,7 C 8,0 km/h (2 Bft) 93,62 %
23.07.2016 17:40 27,8 C 59 % 1012,7 hPa 0,0 l/m 2,4 km/h (1 Bft) N-NO 21 2 min 0,000 mm 1,3 UV-I 413 W/m 19,0 C 27,8 C 6,4 km/h (2 Bft) 95,74 %
23.07.2016 17:42 28,1 C 58 % 1012,6 hPa 0,0 l/m 5,2 km/h (1 Bft) N-NO 26 2 min 0,000 mm 1,3 UV-I 430 W/m 19,0 C 28,1 C 8,0 km/h (2 Bft) 91,30 %
23.07.2016 17:44 28,1 C 58 % 1012,6 hPa 0,0 l/m 5,7 km/h (1 Bft) N-NO 20 2 min 0,000 mm 1,3 UV-I 368 W/m 19,0 C 28,1 C 8,0 km/h (2 Bft) 96,77 %
23.07.2016 17:46 28,2 C 57 % 1012,6 hPa 0,0 l/m 7,4 km/h (2 Bft) N-NO 24 2 min 0,000 mm 1,4 UV-I 427 W/m 18,9 C 28,0 C 12,9 km/h (3 Bft) 95,74 %
23.07.2016 17:48 28,3 C 55 % 1012,6 hPa 0,0 l/m 7,6 km/h (2 Bft) N-NO 29 2 min 0,000 mm 1,3 UV-I 352 W/m 18,4 C 28,1 C 12,9 km/h (3 Bft) 97,87 %
23.07.2016 17:50 28,3 C 54 % 1012,6 hPa 0,0 l/m 3,7 km/h (1 Bft) N-NO 18 2 min 0,000 mm 1,3 UV-I 346 W/m 18,1 C 28,3 C 8,0 km/h (2 Bft) 97,87 %
23.07.2016 17:52 28,3 C 56 % 1012,7 hPa 0,0 l/m 4,0 km/h (1 Bft) NO 35 2 min 0,000 mm 1,3 UV-I 355 W/m 18,7 C 28,3 C 8,0 km/h (2 Bft) 97,87 %
23.07.2016 17:54 28,4 C 56 % 1012,7 hPa 0,0 l/m 6,0 km/h (2 Bft) N 11 2 min 0,000 mm 1,4 UV-I 459 W/m 18,8 C 28,4 C 12,9 km/h (3 Bft) 97,87 %
23.07.2016 17:56 28,6 C 57 % 1012,7 hPa 0,0 l/m 5,8 km/h (2 Bft) NO 48 2 min 0,000 mm 1,4 UV-I 480 W/m 19,2 C 28,6 C 9,7 km/h (2 Bft) 100,00 %
23.07.2016 17:58 28,7 C 54 % 1012,7 hPa 0,0 l/m 8,1 km/h (2 Bft) NO 53 2 min 0,000 mm 1,3 UV-I 470 W/m 18,5 C 28,5 C 14,5 km/h (3 Bft) 97,37 %
23.07.2016 18:00 28,7 C 58 % 1012,7 hPa 0,0 l/m 5,1 km/h (1 Bft) NO 34 2 min 0,228 mm 1,2 UV-I 377 W/m 19,6 C 28,7 C 8,0 km/h (2 Bft) 100,00 %
23.07.2016 18:02 28,6 C 55 % 1012,7 hPa 0,0 l/m 6,8 km/h (2 Bft) O 86 2 min 0,000 mm 1,1 UV-I 248 W/m 18,7 C 28,5 C 9,7 km/h (2 Bft) 97,87 %
23.07.2016 18:04 28,4 C 56 % 1012,7 hPa 0,0 l/m 7,9 km/h (2 Bft) N-NO 24 2 min 0,000 mm 1,0 UV-I 239 W/m 18,8 C 28,2 C 12,9 km/h (3 Bft) 100,00 %
23.07.2016 18:06 28,2 C 58 % 1012,7 hPa 0,0 l/m 5,3 km/h (1 Bft) N-NO 25 0 min 0,000 mm 1,0 UV-I 222 W/m 19,1 C 28,2 C 12,9 km/h (3 Bft) 100,00 %
23.07.2016 18:08 28,1 C 59 % 1012,7 hPa 0,0 l/m 8,1 km/h (2 Bft) N-NO 19 0 min 0,000 mm 0,9 UV-I 206 W/m 19,3 C 27,8 C 12,9 km/h (3 Bft) 97,87 %
23.07.2016 18:10 27,9 C 59 % 1012,7 hPa 0,0 l/m 7,0 km/h (2 Bft) NO 44 0 min 0,000 mm 0,8 UV-I 181 W/m 19,1 C 27,8 C 12,9 km/h (3 Bft) 97,87 %
23.07.2016 18:12 27,8 C 58 % 1012,8 hPa 0,0 l/m 7,1 km/h (2 Bft) O-NO 57 0 min 0,000 mm 0,7 UV-I 164 W/m 18,8 C 27,7 C 11,3 km/h (2 Bft) 100,00 %
23.07.2016 18:14 27,7 C 58 % 1012,9 hPa 0,0 l/m 9,5 km/h (2 Bft) O-NO 67 0 min 0,000 mm 0,7 UV-I 154 W/m 18,7 C 27,2 C 12,9 km/h (3 Bft) 95,74 %
23.07.2016 18:16 27,7 C 58 % 1012,8 hPa 0,0 l/m 9,8 km/h (2 Bft) O-NO 74 0 min 0,000 mm 0,6 UV-I 136 W/m 18,7 C 27,2 C 14,5 km/h (3 Bft) 100,00 %
23.07.2016 18:18 27,6 C 59 % 1012,8 hPa 0,0 l/m 5,6 km/h (1 Bft) O-NO 74 0 min 0,000 mm 0,6 UV-I 123 W/m 18,8 C 27,6 C 14,5 km/h (3 Bft) 100,00 %
23.07.2016 18:20 27,5 C 61 % 1012,8 hPa 0,0 l/m 5,6 km/h (1 Bft) O-NO 62 0 min 0,000 mm 0,5 UV-I 114 W/m 19,3 C 27,5 C 8,0 km/h (2 Bft) 97,87 %
23.07.2016 18:22 27,4 C 60 % 1012,7 hPa 0,0 l/m 7,3 km/h (2 Bft) NO 42 0 min 0,000 mm 0,5 UV-I 110 W/m 18,9 C 27,2 C 9,7 km/h (2 Bft) 100,00 %
23.07.2016 18:24 27,4 C 60 % 1012,5 hPa 0,0 l/m 5,2 km/h (1 Bft) NO 42 0 min 0,000 mm 0,5 UV-I 104 W/m 18,9 C 27,4 C 8,0 km/h (2 Bft) 100,00 %
23.07.2016 18:26 27,3 C 62 % 1012,5 hPa 0,0 l/m 7,1 km/h (2 Bft) N-NO 25 0 min 0,000 mm 0,5 UV-I 100 W/m 19,4 C 27,2 C 12,9 km/h (3 Bft) 100,00 %
23.07.2016 18:28 27,2 C 61 % 1012,5 hPa 0,0 l/m 6,8 km/h (2 Bft) NO 46 0 min 0,000 mm 0,1 UV-I 96 W/m 19,0 C 27,1 C 9,7 km/h (2 Bft) 100,00 %
23.07.2016 18:30 27,2 C 62 % 1012,6 hPa 0,0 l/m 6,1 km/h (2 Bft) O 91 0 min 0,000 mm 0,0 UV-I 93 W/m 19,3 C 27,2 C 12,9 km/h (3 Bft) 97,87 %
23.07.2016 18:32 27,1 C 61 % 1012,6 hPa 0,0 l/m 5,1 km/h (1 Bft) O-SO 107 0 min 0,000 mm 0,0 UV-I 91 W/m 18,9 C 27,1 C 8,0 km/h (2 Bft) 100,00 %
23.07.2016 18:34 27,0 C 62 % 1012,5 hPa 0,0 l/m 4,4 km/h (1 Bft) O 79 0 min 0,000 mm 0,0 UV-I 87 W/m 19,1 C 27,0 C 6,4 km/h (2 Bft) 97,87 %
23.07.2016 18:36 27,0 C 62 % 1012,6 hPa 0,0 l/m 6,7 km/h (2 Bft) O 92 0 min 0,000 mm 0,0 UV-I 83 W/m 19,1 C 26,9 C 12,9 km/h (3 Bft) 100,00 %
23.07.2016 18:38 26,9 C 62 % 1012,5 hPa 0,0 l/m 4,8 km/h (1 Bft) O 84 0 min 0,000 mm 0,0 UV-I 79 W/m 19,0 C 26,9 C 6,4 km/h (2 Bft) 97,92 %
23.07.2016 18:40 26,9 C 62 % 1012,5 hPa 0,0 l/m 4,4 km/h (1 Bft) O 91 0 min 0,000 mm 0,0 UV-I 76 W/m 19,0 C 26,9 C 8,0 km/h (2 Bft) 100,00 %
23.07.2016 18:42 26,9 C 62 % 1012,5 hPa 0,0 l/m 4,6 km/h (1 Bft) O-NO 67 0 min 0,000 mm 0,0 UV-I 74 W/m 19,0 C 26,9 C 8,0 km/h (2 Bft) 100,00 %
23.07.2016 18:44 26,8 C 62 % 1012,5 hPa 0,0 l/m 6,1 km/h (2 Bft) O-NO 63 0 min 0,000 mm 0,0 UV-I 71 W/m 18,9 C 26,8 C 8,0 km/h (2 Bft) 100,00 %
23.07.2016 18:46 26,8 C 63 % 1012,5 hPa 0,0 l/m 4,9 km/h (1 Bft) O-NO 71 0 min 0,000 mm 0,0 UV-I 69 W/m 19,1 C 26,8 C 8,0 km/h (2 Bft) 97,87 %
23.07.2016 18:48 26,8 C 64 % 1012,4 hPa 0,0 l/m 3,4 km/h (1 Bft) NO 50 0 min 0,000 mm 0,0 UV-I 65 W/m 19,4 C 26,8 C 6,4 km/h (2 Bft) 96,00 %
23.07.2016 18:50 26,8 C 63 % 1012,5 hPa 0,0 l/m 5,1 km/h (1 Bft) O-NO 61 0 min 0,000 mm 0,0 UV-I 61 W/m 19,1 C 26,8 C 8,0 km/h (2 Bft) 100,00 %
23.07.2016 18:52 26,8 C 63 % 1012,5 hPa 0,0 l/m 4,3 km/h (1 Bft) O-NO 65 0 min 0,000 mm 0,0 UV-I 57 W/m 19,1 C 26,8 C 6,4 km/h (2 Bft) 97,87 %
23.07.2016 18:54 26,7 C 64 % 1012,5 hPa 0,0 l/m 4,6 km/h (1 Bft) O-NO 68 0 min 0,000 mm 0,0 UV-I 55 W/m 19,3 C 26,7 C 6,4 km/h (2 Bft) 97,87 %
23.07.2016 18:56 26,7 C 65 % 1012,6 hPa 0,0 l/m 2,5 km/h (1 Bft) O-NO 68 0 min 0,000 mm 0,0 UV-I 53 W/m 19,6 C 26,7 C 4,8 km/h (1 Bft) 97,87 %
23.07.2016 18:58 26,6 C 64 % 1012,6 hPa 0,0 l/m 2,1 km/h (1 Bft) O-NO 68 0 min 0,000 mm 0,0 UV-I 49 W/m 19,2 C 26,6 C 3,2 km/h (1 Bft) 97,87 %
23.07.2016 19:00 26,5 C 65 % 1012,6 hPa 0,0 l/m 1,7 km/h (1 Bft) O-NO 68 0 min 0,000 mm 0,0 UV-I 43 W/m 19,4 C 26,5 C 3,2 km/h (1 Bft) 100,00 %
23.07.2016 19:02 26,5 C 65 % 1012,6 hPa 0,0 l/m 1,2 km/h (1 Bft) O-NO 68 0 min 0,102 mm 0,0 UV-I 38 W/m 19,4 C 26,5 C 3,2 km/h (1 Bft) 100,00 %
23.07.2016 19:04 26,4 C 66 % 1012,7 hPa 0,0 l/m 1,8 km/h (1 Bft) O-NO 68 0 min 0,000 mm 0,0 UV-I 33 W/m 19,5 C 26,4 C 3,2 km/h (1 Bft) 98,11 %
23.07.2016 19:06 26,3 C 67 % 1012,7 hPa 0,0 l/m 2,6 km/h (1 Bft) O-NO 67 0 min 0,000 mm 0,0 UV-I 30 W/m 19,7 C 26,3 C 4,8 km/h (1 Bft) 100,00 %
23.07.2016 19:08 26,2 C 67 % 1012,7 hPa 0,0 l/m 2,1 km/h (1 Bft) O-NO 67 0 min 0,000 mm 0,0 UV-I 27 W/m 19,6 C 26,2 C 3,2 km/h (1 Bft) 97,37 %
23.07.2016 19:10 26,2 C 67 % 1012,7 hPa 0,0 l/m 1,9 km/h (1 Bft) O-NO 67 0 min 0,000 mm 0,0 UV-I 25 W/m 19,6 C 26,2 C 3,2 km/h (1 Bft) 97,87 %
23.07.2016 19:12 26,2 C 67 % 1012,7 hPa 0,0 l/m 1,0 km/h (0 Bft) O-NO 67 0 min 0,000 mm 0,0 UV-I 24 W/m 19,6 C 26,2 C 3,2 km/h (1 Bft) 97,87 %
23.07.2016 19:14 26,1 C 68 % 1012,7 hPa 0,0 l/m 2,2 km/h (1 Bft) O-NO 67 0 min 0,000 mm 0,0 UV-I 23 W/m 19,7 C 26,1 C 4,8 km/h (1 Bft) 97,87 %
23.07.2016 19:16 26,0 C 69 % 1012,7 hPa 0,0 l/m 1,8 km/h (1 Bft) O-NO 67 0 min 0,000 mm 0,0 UV-I 21 W/m 19,9 C 26,0 C 3,2 km/h (1 Bft) 95,74 %
23.07.2016 19:18 25,9 C 69 % 1012,6 hPa 0,0 l/m 2,3 km/h (1 Bft) O-NO 67 0 min 0,000 mm 0,0 UV-I 21 W/m 19,8 C 25,9 C 3,2 km/h (1 Bft) 97,92 %
23.07.2016 19:20 25,8 C 69 % 1012,6 hPa 0,0 l/m 3,6 km/h (1 Bft) O-NO 67 0 min 0,000 mm 0,0 UV-I 19 W/m 19,7 C 25,8 C 4,8 km/h (1 Bft) 97,87 %
23.07.2016 19:22 25,8 C 69 % 1012,6 hPa 0,0 l/m 3,0 km/h (1 Bft) O-NO 67 0 min 0,000 mm 0,0 UV-I 19 W/m 19,7 C 25,8 C 4,8 km/h (1 Bft) 97,87 %
23.07.2016 19:24 25,7 C 71 % 1012,6 hPa 0,0 l/m 2,9 km/h (1 Bft) O-NO 61 0 min 0,000 mm 0,0 UV-I 19 W/m 20,0 C 25,7 C 4,8 km/h (1 Bft) 96,00 %
23.07.2016 19:26 25,6 C 73 % 1012,6 hPa 0,0 l/m 2,5 km/h (1 Bft) O-NO 61 0 min 0,000 mm 0,0 UV-I 18 W/m 20,4 C 25,6 C 3,2 km/h (1 Bft) 95,74 %
23.07.2016 19:28 25,5 C 73 % 1012,6 hPa 0,0 l/m 3,1 km/h (1 Bft) O-NO 61 0 min 0,000 mm 0,0 UV-I 19 W/m 20,3 C 25,5 C 4,8 km/h (1 Bft) 95,74 %
23.07.2016 19:30 25,3 C 74 % 1012,5 hPa 0,0 l/m 2,8 km/h (1 Bft) O-NO 61 0 min 0,000 mm 0,0 UV-I 19 W/m 20,3 C 25,3 C 4,8 km/h (1 Bft) 95,74 %
23.07.2016 19:32 25,2 C 76 % 1012,5 hPa 0,0 l/m 1,8 km/h (1 Bft) O-NO 61 0 min 0,000 mm 0,0 UV-I 19 W/m 20,7 C 25,2 C 3,2 km/h (1 Bft) 95,74 %
23.07.2016 19:34 25,1 C 77 % 1012,4 hPa 0,0 l/m 1,1 km/h (1 Bft) O-NO 61 0 min 0,000 mm 0,0 UV-I 19 W/m 20,8 C 25,1 C 3,2 km/h (1 Bft) 97,87 %
23.07.2016 19:36 24,9 C 76 % 1012,4 hPa 0,2 l/m 0,5 km/h (0 Bft) O-NO 61 0 min 0,000 mm 0,0 UV-I 19 W/m 20,4 C 24,9 C 1,6 km/h (1 Bft) 97,87 %
23.07.2016 19:38 24,8 C 77 % 1012,3 hPa 0,0 l/m 0,4 km/h (0 Bft) O-NO 61 0 min 0,000 mm 0,0 UV-I 19 W/m 20,5 C 24,8 C 1,6 km/h (1 Bft) 98,00 %
23.07.2016 19:40 24,7 C 78 % 1012,4 hPa 0,0 l/m 1,5 km/h (1 Bft) O-NO 61 0 min 0,000 mm 0,0 UV-I 18 W/m 20,6 C 24,7 C 1,6 km/h (1 Bft) 97,87 %
23.07.2016 19:42 24,5 C 80 % 1012,3 hPa 0,0 l/m 1,7 km/h (1 Bft) O-NO 61 0 min 0,000 mm 0,0 UV-I 18 W/m 20,8 C 24,5 C 3,2 km/h (1 Bft) 97,87 %
23.07.2016 19:44 24,3 C 81 % 1012,3 hPa 0,0 l/m 1,8 km/h (1 Bft) O-NO 61 0 min 0,000 mm 0,0 UV-I 18 W/m 20,8 C 24,3 C 3,2 km/h (1 Bft) 95,74 %
23.07.2016 19:46 24,2 C 82 % 1012,2 hPa 0,0 l/m 1,5 km/h (1 Bft) O-NO 61 0 min 0,000 mm 0,0 UV-I 18 W/m 20,9 C 24,2 C 3,2 km/h (1 Bft) 100,00 %
23.07.2016 19:48 24,1 C 82 % 1012,2 hPa 0,0 l/m 2,3 km/h (1 Bft) O-NO 61 0 min 0,000 mm 0,0 UV-I 18 W/m 20,8 C 24,1 C 3,2 km/h (1 Bft) 100,00 %
23.07.2016 19:50 23,9 C 83 % 1012,2 hPa 0,0 l/m 2,4 km/h (1 Bft) O-NO 61 0 min 0,000 mm 0,0 UV-I 16 W/m 20,8 C 23,9 C 3,2 km/h (1 Bft) 93,62 %
23.07.2016 19:52 23,8 C 83 % 1012,2 hPa 0,0 l/m 3,5 km/h (1 Bft) O 96 0 min 0,000 mm 0,0 UV-I 15 W/m 20,7 C 23,8 C 4,8 km/h (1 Bft) 100,00 %
23.07.2016 19:54 23,7 C 83 % 1012,3 hPa 0,0 l/m 4,6 km/h (1 Bft) O 83 0 min 0,000 mm 0,0 UV-I 13 W/m 20,6 C 23,7 C 6,4 km/h (2 Bft) 96,00 %
23.07.2016 19:56 23,7 C 82 % 1012,3 hPa 0,0 l/m 4,3 km/h (1 Bft) O 84 0 min 0,000 mm 0,0 UV-I 12 W/m 20,4 C 23,7 C 6,4 km/h (2 Bft) 95,74 %
23.07.2016 19:58 23,8 C 81 % 1012,3 hPa 0,0 l/m 4,9 km/h (1 Bft) O-NO 77 0 min 0,000 mm 0,0 UV-I 12 W/m 20,3 C 23,8 C 6,4 km/h (2 Bft) 100,00 %
23.07.2016 20:00 23,8 C 80 % 1012,2 hPa 0,0 l/m 5,3 km/h (1 Bft) O-NO 69 0 min 0,025 mm 0,0 UV-I 12 W/m 20,1 C 23,8 C 6,4 km/h (2 Bft) 93,62 %
23.07.2016 20:02 23,9 C 80 % 1012,2 hPa 0,0 l/m 4,3 km/h (1 Bft) O 82 0 min 0,000 mm 0,0 UV-I 11 W/m 20,2 C 23,9 C 6,4 km/h (2 Bft) 97,92 %
23.07.2016 20:04 23,9 C 79 % 1012,3 hPa 0,0 l/m 3,7 km/h (1 Bft) O 82 0 min 0,000 mm 0,0 UV-I 10 W/m 20,0 C 23,9 C 4,8 km/h (1 Bft) 95,74 %
23.07.2016 20:06 23,9 C 80 % 1012,2 hPa 0,0 l/m 3,5 km/h (1 Bft) O-NO 74 0 min 0,000 mm 0,0 UV-I 9 W/m 20,2 C 23,9 C 6,4 km/h (2 Bft) 97,87 %
23.07.2016 20:08 24,0 C 79 % 1012,1 hPa 0,0 l/m 4,5 km/h (1 Bft) O 82 0 min 0,000 mm 0,0 UV-I 9 W/m 20,1 C 24,0 C 6,4 km/h (2 Bft) 97,87 %
23.07.2016 20:10 23,9 C 80 % 1012,1 hPa 0,0 l/m 2,5 km/h (1 Bft) O 82 0 min 0,000 mm 0,0 UV-I 8 W/m 20,2 C 23,9 C 3,2 km/h (1 Bft) 98,00 %
23.07.2016 20:12 23,9 C 80 % 1012,1 hPa 0,0 l/m 2,8 km/h (1 Bft) O 82 0 min 0,000 mm 0,0 UV-I 7 W/m 20,2 C 23,9 C 4,8 km/h (1 Bft) 100,00 %
23.07.2016 20:14 23,9 C 79 % 1012,1 hPa 0,0 l/m 3,8 km/h (1 Bft) O-NO 70 0 min 0,000 mm 0,0 UV-I 7 W/m 20,0 C 23,9 C 4,8 km/h (1 Bft) 100,00 %
23.07.2016 20:16 23,9 C 79 % 1012,1 hPa 0,0 l/m 3,4 km/h (1 Bft) O-NO 76 0 min 0,000 mm 0,0 UV-I 5 W/m 20,0 C 23,9 C 6,4 km/h (2 Bft) 100,00 %
23.07.2016 20:18 24,0 C 79 % 1012,2 hPa 0,0 l/m 1,4 km/h (1 Bft) O-NO 76 0 min 0,000 mm 0,0 UV-I 5 W/m 20,1 C 24,0 C 3,2 km/h (1 Bft) 100,00 %
23.07.2016 20:20 24,0 C 79 % 1012,3 hPa 0,0 l/m 1,0 km/h (0 Bft) O-NO 76 0 min 0,000 mm 0,0 UV-I 0 W/m 20,1 C 24,0 C 3,2 km/h (1 Bft) 100,00 %
23.07.2016 20:22 24,0 C 79 % 1012,4 hPa 0,0 l/m 1,7 km/h (1 Bft) O-NO 76 0 min 0,000 mm 0,0 UV-I 0 W/m 20,1 C 24,0 C 3,2 km/h (1 Bft) 100,00 %
23.07.2016 20:24 24,0 C 79 % 1012,4 hPa 0,0 l/m 2,4 km/h (1 Bft) O-NO 76 0 min 0,000 mm 0,0 UV-I 0 W/m 20,1 C 24,0 C 3,2 km/h (1 Bft) 100,00 %
23.07.2016 20:26 23,9 C 80 % 1012,3 hPa 0,0 l/m 0,6 km/h (0 Bft) O-NO 74 0 min 0,000 mm 0,0 UV-I 0 W/m 20,2 C 23,9 C 1,6 km/h (1 Bft) 97,87 %
23.07.2016 20:28 23,7 C 83 % 1012,4 hPa 0,0 l/m 0,1 km/h (0 Bft) O-NO 74 0 min 0,000 mm 0,0 UV-I 0 W/m 20,6 C 23,7 C 1,6 km/h (1 Bft) 100,00 %
23.07.2016 20:30 23,4 C 84 % 1012,4 hPa 0,0 l/m 0,1 km/h (0 Bft) O-NO 74 0 min 0,000 mm 0,0 UV-I 0 W/m 20,5 C 23,4 C 1,6 km/h (1 Bft) 100,00 %
23.07.2016 20:32 23,3 C 84 % 1012,3 hPa 0,0 l/m 0,1 km/h (0 Bft) O-NO 74 0 min 0,000 mm 0,0 UV-I 0 W/m 20,4 C 23,3 C 1,6 km/h (1 Bft) 100,00 %
23.07.2016 20:34 23,2 C 84 % 1012,2 hPa 0,0 l/m 0,0 km/h (0 Bft) O-NO 74 0 min 0,000 mm 0,0 UV-I 0 W/m 20,3 C 23,2 C 1,6 km/h (1 Bft) 97,87 %
23.07.2016 20:36 23,1 C 84 % 1012,3 hPa 0,0 l/m 0,2 km/h (0 Bft) O-NO 74 0 min 0,000 mm 0,0 UV-I 0 W/m 20,2 C 23,1 C 1,6 km/h (1 Bft) 97,87 %
23.07.2016 20:38 23,1 C 84 % 1012,5 hPa 0,0 l/m 0,0 km/h (0 Bft) O-NO 74 0 min 0,000 mm 0,0 UV-I 0 W/m 20,2 C 23,1 C 0,0 km/h (0 Bft) 100,00 %
23.07.2016 20:40 23,1 C 83 % 1012,6 hPa 0,0 l/m 0,0 km/h (0 Bft) O-NO 74 0 min 0,000 mm 0,0 UV-I 0 W/m 20,0 C 23,1 C 0,0 km/h (0 Bft) 97,87 %
23.07.2016 20:42 23,2 C 82 % 1012,6 hPa 0,0 l/m 0,0 km/h (0 Bft) O-NO 74 0 min 0,000 mm 0,0 UV-I 0 W/m 19,9 C 23,2 C 0,0 km/h (0 Bft) 100,00 %
23.07.2016 20:44 23,3 C 83 % 1012,5 hPa 0,0 l/m 0,8 km/h (0 Bft) O-NO 74 0 min 0,000 mm 0,0 UV-I 0 W/m 20,2 C 23,3 C 1,6 km/h (1 Bft) 97,87 %
23.07.2016 20:46 23,4 C 83 % 1012,3 hPa 0,0 l/m 2,2 km/h (1 Bft) O-NO 74 0 min 0,000 mm 0,0 UV-I 0 W/m 20,3 C 23,4 C 3,2 km/h (1 Bft) 100,00 %
23.07.2016 20:48 23,4 C 82 % 1012,3 hPa 0,0 l/m 1,8 km/h (1 Bft) O-NO 74 0 min 0,000 mm 0,0 UV-I 0 W/m 20,1 C 23,4 C 3,2 km/h (1 Bft) 100,00 %
23.07.2016 20:50 23,4 C 83 % 1012,4 hPa 0,0 l/m 0,1 km/h (0 Bft) O-NO 74 0 min 0,000 mm 0,0 UV-I 0 W/m 20,3 C 23,4 C 1,6 km/h (1 Bft) 100,00 %
23.07.2016 20:52 23,5 C 84 % 1012,4 hPa 0,0 l/m 0,0 km/h (0 Bft) O-NO 74 0 min 0,000 mm 0,0 UV-I 0 W/m 20,6 C 23,5 C 0,0 km/h (0 Bft) 100,00 %
23.07.2016 20:54 23,6 C 84 % 1012,5 hPa 0,0 l/m 0,0 km/h (0 Bft) O-NO 74 0 min 0,000 mm 0,0 UV-I 0 W/m 20,7 C 23,6 C 0,0 km/h (0 Bft) 100,00 %
23.07.2016 20:56 23,5 C 83 % 1012,5 hPa 0,0 l/m 0,0 km/h (0 Bft) O-NO 74 0 min 0,000 mm 0,0 UV-I 0 W/m 20,4 C 23,5 C 0,0 km/h (0 Bft) 97,87 %
23.07.2016 20:58 23,6 C 85 % 1012,5 hPa 0,0 l/m 0,8 km/h (0 Bft) O-NO 74 0 min 0,000 mm 0,0 UV-I 0 W/m 20,9 C 23,6 C 3,2 km/h (1 Bft) 100,00 %
23.07.2016 21:00 23,6 C 83 % 1012,6 hPa 0,0 l/m 2,7 km/h (1 Bft) O-NO 74 0 min 0,000 mm 0,0 UV-I 0 W/m 20,5 C 23,6 C 4,8 km/h (1 Bft) 100,00 %
23.07.2016 21:02 23,5 C 84 % 1012,6 hPa 0,0 l/m 3,3 km/h (1 Bft) O-NO 65 0 min 0,000 mm 0,0 UV-I 0 W/m 20,6 C 23,5 C 4,8 km/h (1 Bft) 100,00 %
23.07.2016 21:04 23,4 C 85 % 1012,6 hPa 0,0 l/m 4,6 km/h (1 Bft) SW 223 0 min 0,000 mm 0,0 UV-I 0 W/m 20,7 C 23,4 C 6,4 km/h (2 Bft) 100,00 %
23.07.2016 21:06 23,3 C 86 % 1012,7 hPa 0,0 l/m 7,3 km/h (2 Bft) S 181 0 min 0,000 mm 0,0 UV-I 0 W/m 20,8 C 23,0 C 11,3 km/h (2 Bft) 97,87 %
23.07.2016 21:08 23,2 C 86 % 1012,9 hPa 0,0 l/m 12,4 km/h (3 Bft) S 189 0 min 0,000 mm 0,0 UV-I 0 W/m 20,7 C 21,6 C 20,9 km/h (4 Bft) 96,00 %
23.07.2016 21:10 22,9 C 85 % 1012,8 hPa 0,2 l/m 21,5 km/h (4 Bft) S 178 0 min 0,000 mm 0,0 UV-I 0 W/m 20,2 C 19,7 C 32,2 km/h (5 Bft) 97,87 %
23.07.2016 21:12 22,7 C 86 % 1012,9 hPa 0,2 l/m 19,6 km/h (3 Bft) S-SW 205 0 min 0,000 mm 0,0 UV-I 0 W/m 20,2 C 19,8 C 29,0 km/h (5 Bft) 93,62 %
23.07.2016 21:14 22,5 C 87 % 1012,9 hPa 0,4 l/m 16,9 km/h (3 Bft) S-SW 196 0 min 0,000 mm 0,0 UV-I 0 W/m 20,2 C 19,9 C 25,7 km/h (4 Bft) 93,62 %
23.07.2016 21:16 22,3 C 88 % 1012,8 hPa 0,2 l/m 11,6 km/h (2 Bft) W-SW 253 0 min 0,000 mm 0,0 UV-I 0 W/m 20,2 C 20,8 C 20,9 km/h (4 Bft) 100,00 %
23.07.2016 21:18 22,2 C 89 % 1012,8 hPa 0,4 l/m 14,3 km/h (3 Bft) W 267 0 min 0,000 mm 0,0 UV-I 0 W/m 20,3 C 20,1 C 22,5 km/h (4 Bft) 96,00 %
23.07.2016 21:20 22,1 C 89 % 1012,7 hPa 0,2 l/m 14,4 km/h (3 Bft) W-SW 244 0 min 0,000 mm 0,0 UV-I 0 W/m 20,2 C 19,9 C 20,9 km/h (4 Bft) 95,74 %
23.07.2016 21:22 21,9 C 89 % 1012,8 hPa 0,2 l/m 16,2 km/h (3 Bft) W 272 0 min 0,000 mm 0,0 UV-I 0 W/m 20,0 C 19,3 C 22,5 km/h (4 Bft) 97,92 %
23.07.2016 21:24 21,8 C 90 % 1012,8 hPa 0,4 l/m 18,3 km/h (3 Bft) W 277 0 min 0,000 mm 0,0 UV-I 0 W/m 20,1 C 18,8 C 22,5 km/h (4 Bft) 94,00 %
23.07.2016 21:26 21,7 C 90 % 1012,7 hPa 0,4 l/m 14,0 km/h (3 Bft) W 271 0 min 0,000 mm 0,0 UV-I 0 W/m 20,0 C 19,5 C 20,9 km/h (4 Bft) 98,00 %
23.07.2016 21:28 21,6 C 90 % 1012,4 hPa 2,2 l/m 19,2 km/h (3 Bft) W-SW 254 0 min 0,000 mm 0,0 UV-I 0 W/m 19,9 C 18,4 C 25,7 km/h (4 Bft) 93,62 %
23.07.2016 21:30 21,4 C 90 % 1012,3 hPa 1,4 l/m 15,1 km/h (3 Bft) W-SW 256 0 min 0,000 mm 0,0 UV-I 0 W/m 19,7 C 18,9 C 25,7 km/h (4 Bft) 97,37 %
23.07.2016 21:32 21,3 C 90 % 1012,6 hPa 0,4 l/m 12,4 km/h (3 Bft) W-SW 239 0 min 0,000 mm 0,0 UV-I 0 W/m 19,6 C 19,4 C 22,5 km/h (4 Bft) 97,92 %
23.07.2016 21:34 21,1 C 90 % 1013,0 hPa 0,8 l/m 14,0 km/h (3 Bft) W-SW 252 0 min 0,000 mm 0,0 UV-I 0 W/m 19,4 C 18,8 C 29,0 km/h (5 Bft) 95,74 %
23.07.2016 21:36 20,8 C 90 % 1013,4 hPa 2,0 l/m 24,8 km/h (4 Bft) W-SW 244 0 min 0,000 mm 0,0 UV-I 0 W/m 19,1 C 16,5 C 33,8 km/h (5 Bft) 98,00 %
23.07.2016 21:38 20,6 C 89 % 1013,7 hPa 1,4 l/m 21,4 km/h (4 Bft) W-SW 255 0 min 0,000 mm 0,0 UV-I 0 W/m 18,7 C 16,7 C 32,2 km/h (5 Bft) 100,00 %
23.07.2016 21:40 20,3 C 89 % 1014,1 hPa 2,0 l/m 26,7 km/h (4 Bft) SW 236 0 min 0,000 mm 0,0 UV-I 0 W/m 18,4 C 15,6 C 35,4 km/h (5 Bft) 100,00 %
23.07.2016 21:42 20,1 C 89 % 1014,1 hPa 4,8 l/m 27,0 km/h (4 Bft) S-SW 213 0 min 0,000 mm 0,0 UV-I 0 W/m 18,2 C 15,2 C 38,6 km/h (5 Bft) 100,00 %
23.07.2016 21:44 19,8 C 90 % 1014,1 hPa 3,2 l/m 21,0 km/h (4 Bft) SW 221 0 min 0,000 mm 0,0 UV-I 0 W/m 18,1 C 15,8 C 35,4 km/h (5 Bft) 95,74 %
23.07.2016 21:46 19,6 C 87 % 1014,3 hPa 3,4 l/m 15,3 km/h (3 Bft) W-SW 258 0 min 0,000 mm 0,0 UV-I 0 W/m 17,4 C 16,7 C 37,0 km/h (5 Bft) 100,00 %
23.07.2016 21:48 19,4 C 86 % 1014,3 hPa 2,0 l/m 9,3 km/h (2 Bft) W-SW 252 0 min 0,000 mm 0,0 UV-I 0 W/m 17,0 C 18,2 C 20,9 km/h (4 Bft) 97,37 %
23.07.2016 21:50 19,3 C 87 % 1014,4 hPa 1,2 l/m 3,8 km/h (1 Bft) O 83 0 min 0,000 mm 0,0 UV-I 0 W/m 17,1 C 19,3 C 8,0 km/h (2 Bft) 95,92 %
23.07.2016 21:52 19,2 C 88 % 1014,4 hPa 1,4 l/m 11,4 km/h (2 Bft) O 99 0 min 0,000 mm 0,0 UV-I 0 W/m 17,2 C 17,3 C 19,3 km/h (3 Bft) 100,00 %
23.07.2016 21:54 19,1 C 89 % 1014,5 hPa 2,2 l/m 18,8 km/h (3 Bft) O-NO 62 0 min 0,000 mm 0,0 UV-I 0 W/m 17,2 C 15,3 C 24,1 km/h (4 Bft) 100,00 %
23.07.2016 21:56 18,9 C 89 % 1014,1 hPa 1,2 l/m 20,0 km/h (4 Bft) O-SO 111 0 min 0,000 mm 0,0 UV-I 0 W/m 17,0 C 14,8 C 32,2 km/h (5 Bft) 100,00 %
23.07.2016 21:58 18,8 C 91 % 1013,5 hPa 1,4 l/m 19,2 km/h (3 Bft) NO 41 0 min 0,000 mm 0,0 UV-I 0 W/m 17,3 C 14,8 C 40,2 km/h (6 Bft) 95,74 %
23.07.2016 22:00 18,8 C 91 % 1013,7 hPa 1,2 l/m 8,7 km/h (2 Bft) NW 304 0 min 0,000 mm 0,0 UV-I 0 W/m 17,3 C 17,8 C 24,1 km/h (4 Bft) 97,96 %
23.07.2016 22:02 18,8 C 92 % 1013,8 hPa 1,8 l/m 11,4 km/h (2 Bft) N-NO 26 0 min 0,026 mm 0,0 UV-I 0 W/m 17,5 C 16,8 C 25,7 km/h (4 Bft) 97,92 %
23.07.2016 22:04 18,8 C 92 % 1014,0 hPa 1,0 l/m 8,2 km/h (2 Bft) N 355 0 min 0,000 mm 0,0 UV-I 0 W/m 17,5 C 18,0 C 25,7 km/h (4 Bft) 97,37 %
23.07.2016 22:06 18,7 C 92 % 1014,1 hPa 0,6 l/m 6,7 km/h (2 Bft) NW 309 0 min 0,000 mm 0,0 UV-I 0 W/m 17,4 C 18,6 C 14,5 km/h (3 Bft) 98,00 %
23.07.2016 22:08 18,7 C 93 % 1014,4 hPa 0,0 l/m 3,7 km/h (1 Bft) SW 222 0 min 0,000 mm 0,0 UV-I 0 W/m 17,5 C 18,7 C 6,4 km/h (2 Bft) 100,00 %
23.07.2016 22:10 18,7 C 94 % 1014,7 hPa 0,4 l/m 8,5 km/h (2 Bft) SW 234 0 min 0,000 mm 0,0 UV-I 0 W/m 17,7 C 17,8 C 17,7 km/h (3 Bft) 100,00 %
23.07.2016 22:12 18,6 C 94 % 1014,9 hPa 0,2 l/m 5,2 km/h (1 Bft) W-SW 238 0 min 0,000 mm 0,0 UV-I 0 W/m 17,6 C 18,6 C 11,3 km/h (2 Bft) 100,00 %
23.07.2016 22:14 18,6 C 94 % 1015,2 hPa 0,6 l/m 6,4 km/h (2 Bft) SW 225 0 min 0,000 mm 0,0 UV-I 0 W/m 17,6 C 18,6 C 12,9 km/h (3 Bft) 100,00 %
23.07.2016 22:16 18,6 C 94 % 1015,4 hPa 0,8 l/m 8,4 km/h (2 Bft) S 179 0 min 0,000 mm 0,0 UV-I 0 W/m 17,6 C 17,7 C 14,5 km/h (3 Bft) 100,00 %
23.07.2016 22:18 18,6 C 95 % 1015,5 hPa 1,4 l/m 7,6 km/h (2 Bft) S 184 0 min 0,000 mm 0,0 UV-I 0 W/m 17,8 C 18,1 C 11,3 km/h (2 Bft) 100,00 %
23.07.2016 22:20 18,6 C 95 % 1015,5 hPa 2,0 l/m 10,0 km/h (2 Bft) S-SO 149 0 min 0,000 mm 0,0 UV-I 0 W/m 17,8 C 17,1 C 14,5 km/h (3 Bft) 97,96 %
23.07.2016 22:22 18,7 C 95 % 1015,4 hPa 2,8 l/m 8,0 km/h (2 Bft) S-SW 198 0 min 0,000 mm 0,0 UV-I 0 W/m 17,9 C 18,0 C 14,5 km/h (3 Bft) 98,00 %
23.07.2016 22:24 18,7 C 95 % 1015,4 hPa 2,2 l/m 7,1 km/h (2 Bft) SW 216 0 min 0,000 mm 0,0 UV-I 0 W/m 17,9 C 18,4 C 11,3 km/h (2 Bft) 97,87 %
23.07.2016 22:26 18,7 C 95 % 1015,3 hPa 1,4 l/m 8,5 km/h (2 Bft) S 177 0 min 0,000 mm 0,0 UV-I 0 W/m 17,9 C 17,8 C 14,5 km/h (3 Bft) 100,00 %
23.07.2016 22:28 18,8 C 96 % 1015,2 hPa 1,0 l/m 7,7 km/h (2 Bft) S 180 0 min 0,000 mm 0,0 UV-I 0 W/m 18,1 C 18,2 C 12,9 km/h (3 Bft) 95,74 %
23.07.2016 22:30 18,8 C 95 % 1015,1 hPa 1,2 l/m 6,6 km/h (2 Bft) SW 228 0 min 0,000 mm 0,0 UV-I 0 W/m 18,0 C 18,7 C 11,3 km/h (2 Bft) 100,00 %
23.07.2016 22:32 18,8 C 96 % 1014,9 hPa 0,8 l/m 5,0 km/h (1 Bft) S-SW 196 0 min 0,000 mm 0,0 UV-I 0 W/m 18,1 C 18,8 C 12,9 km/h (3 Bft) 100,00 %
23.07.2016 22:34 18,9 C 95 % 1014,9 hPa 0,4 l/m 4,7 km/h (1 Bft) W-SW 250 0 min 0,000 mm 0,0 UV-I 0 W/m 18,1 C 18,9 C 8,0 km/h (2 Bft) 97,87 %
23.07.2016 22:36 18,9 C 96 % 1014,9 hPa 0,6 l/m 3,9 km/h (1 Bft) SW 232 0 min 0,000 mm 0,0 UV-I 0 W/m 18,2 C 18,9 C 12,9 km/h (3 Bft) 100,00 %
23.07.2016 22:38 19,0 C 96 % 1015,0 hPa 0,4 l/m 4,4 km/h (1 Bft) S-SW 192 0 min 0,000 mm 0,0 UV-I 0 W/m 18,3 C 19,0 C 9,7 km/h (2 Bft) 100,00 %
23.07.2016 22:40 19,0 C 96 % 1015,0 hPa 0,2 l/m 3,7 km/h (1 Bft) S 185 0 min 0,000 mm 0,0 UV-I 0 W/m 18,3 C 19,0 C 6,4 km/h (2 Bft) 100,00 %
23.07.2016 22:42 19,0 C 96 % 1015,0 hPa 0,0 l/m 3,9 km/h (1 Bft) W-SW 243 0 min 0,000 mm 0,0 UV-I 0 W/m 18,3 C 19,0 C 9,7 km/h (2 Bft) 93,62 %
23.07.2016 22:44 19,0 C 96 % 1014,9 hPa 0,2 l/m 2,9 km/h (1 Bft) W 271 0 min 0,000 mm 0,0 UV-I 0 W/m 18,3 C 19,0 C 4,8 km/h (1 Bft) 100,00 %
23.07.2016 22:46 19,1 C 96 % 1014,8 hPa 0,2 l/m 4,3 km/h (1 Bft) SW 236 0 min 0,000 mm 0,0 UV-I 0 W/m 18,4 C 19,1 C 14,5 km/h (3 Bft) 100,00 %
23.07.2016 22:48 19,1 C 96 % 1014,8 hPa 0,0 l/m 8,4 km/h (2 Bft) SW 230 0 min 0,000 mm 0,0 UV-I 0 W/m 18,4 C 18,2 C 14,5 km/h (3 Bft) 100,00 %
23.07.2016 22:50 19,1 C 96 % 1014,8 hPa 0,0 l/m 5,7 km/h (1 Bft) SW 221 0 min 0,000 mm 0,0 UV-I 0 W/m 18,4 C 19,1 C 9,7 km/h (2 Bft) 100,00 %
23.07.2016 22:52 19,1 C 96 % 1014,9 hPa 0,0 l/m 7,0 km/h (2 Bft) S-SW 202 0 min 0,000 mm 0,0 UV-I 0 W/m 18,4 C 18,8 C 11,3 km/h (2 Bft) 100,00 %
23.07.2016 22:54 19,1 C 96 % 1015,0 hPa 0,0 l/m 7,7 km/h (2 Bft) S 182 0 min 0,000 mm 0,0 UV-I 0 W/m 18,4 C 18,5 C 9,7 km/h (2 Bft) 95,74 %
23.07.2016 22:56 19,1 C 96 % 1015,1 hPa 0,2 l/m 8,9 km/h (2 Bft) S 189 0 min 0,000 mm 0,0 UV-I 0 W/m 18,4 C 18,0 C 12,9 km/h (3 Bft) 100,00 %
23.07.2016 22:58 19,1 C 96 % 1015,1 hPa 0,2 l/m 9,9 km/h (2 Bft) S 190 0 min 0,000 mm 0,0 UV-I 0 W/m 18,4 C 17,7 C 17,7 km/h (3 Bft) 98,00 %
23.07.2016 23:00 19,1 C 96 % 1015,1 hPa 0,0 l/m 7,7 km/h (2 Bft) S-SW 201 0 min 0,000 mm 0,0 UV-I 0 W/m 18,4 C 18,5 C 9,7 km/h (2 Bft) 97,87 %
23.07.2016 23:02 19,1 C 96 % 1015,2 hPa 0,2 l/m 8,3 km/h (2 Bft) S-SW 206 0 min 0,000 mm 0,0 UV-I 0 W/m 18,4 C 18,3 C 12,9 km/h (3 Bft) 100,00 %
23.07.2016 23:04 19,1 C 96 % 1015,1 hPa 0,0 l/m 12,4 km/h (3 Bft) S-SW 213 0 min 0,000 mm 0,0 UV-I 0 W/m 18,4 C 16,9 C 14,5 km/h (3 Bft) 94,74 %
23.07.2016 23:06 19,1 C 96 % 1015,1 hPa 0,2 l/m 9,0 km/h (2 Bft) S-SO 168 0 min 0,000 mm 0,0 UV-I 0 W/m 18,4 C 18,0 C 16,1 km/h (3 Bft) 98,00 %
23.07.2016 23:08 19,0 C 96 % 1015,1 hPa 0,0 l/m 10,4 km/h (2 Bft) S-SW 196 0 min 0,000 mm 0,0 UV-I 0 W/m 18,3 C 17,4 C 14,5 km/h (3 Bft) 95,74 %
23.07.2016 23:10 19,0 C 96 % 1015,2 hPa 0,0 l/m 10,8 km/h (2 Bft) W-SW 245 0 min 0,000 mm 0,0 UV-I 0 W/m 18,3 C 17,3 C 16,1 km/h (3 Bft) 95,74 %
23.07.2016 23:12 19,0 C 96 % 1015,2 hPa 0,0 l/m 11,0 km/h (2 Bft) S 181 0 min 0,000 mm 0,0 UV-I 0 W/m 18,3 C 17,2 C 17,7 km/h (3 Bft) 97,87 %
23.07.2016 23:14 18,9 C 96 % 1015,2 hPa 0,2 l/m 9,6 km/h (2 Bft) SW 231 0 min 0,000 mm 0,0 UV-I 0 W/m 18,2 C 17,6 C 16,1 km/h (3 Bft) 97,92 %
23.07.2016 23:16 19,0 C 96 % 1015,2 hPa 0,0 l/m 11,6 km/h (2 Bft) S-SW 211 0 min 0,000 mm 0,0 UV-I 0 W/m 18,3 C 17,0 C 17,7 km/h (3 Bft) 97,87 %
23.07.2016 23:18 18,9 C 96 % 1015,2 hPa 0,0 l/m 10,4 km/h (2 Bft) SW 214 0 min 0,000 mm 0,0 UV-I 0 W/m 18,2 C 17,3 C 17,7 km/h (3 Bft) 95,74 %
23.07.2016 23:20 18,9 C 96 % 1015,2 hPa 0,0 l/m 9,3 km/h (2 Bft) SW 225 0 min 0,000 mm 0,0 UV-I 0 W/m 18,2 C 17,7 C 14,5 km/h (3 Bft) 95,74 %
23.07.2016 23:22 18,9 C 96 % 1015,2 hPa 0,0 l/m 10,5 km/h (2 Bft) W-SW 251 0 min 0,000 mm 0,0 UV-I 0 W/m 18,2 C 17,3 C 16,1 km/h (3 Bft) 97,92 %
23.07.2016 23:24 18,9 C 96 % 1015,2 hPa 0,2 l/m 11,0 km/h (2 Bft) W-SW 246 0 min 0,000 mm 0,0 UV-I 0 W/m 18,2 C 17,1 C 16,1 km/h (3 Bft) 97,87 %
23.07.2016 23:26 18,9 C 96 % 1015,2 hPa 0,0 l/m 11,3 km/h (2 Bft) S-SW 207 0 min 0,000 mm 0,0 UV-I 0 W/m 18,2 C 17,0 C 16,1 km/h (3 Bft) 93,62 %
23.07.2016 23:28 18,9 C 96 % 1015,2 hPa 0,0 l/m 10,9 km/h (2 Bft) S-SW 202 0 min 0,000 mm 0,0 UV-I 0 W/m 18,2 C 17,1 C 19,3 km/h (3 Bft) 97,87 %
23.07.2016 23:30 18,9 C 96 % 1015,3 hPa 0,0 l/m 10,3 km/h (2 Bft) SW 232 0 min 0,000 mm 0,0 UV-I 0 W/m 18,2 C 17,3 C 16,1 km/h (3 Bft) 97,87 %
23.07.2016 23:32 18,9 C 96 % 1015,3 hPa 0,0 l/m 8,8 km/h (2 Bft) S-SW 207 0 min 0,000 mm 0,0 UV-I 0 W/m 18,2 C 17,9 C 12,9 km/h (3 Bft) 97,92 %
23.07.2016 23:34 18,8 C 96 % 1015,3 hPa 0,0 l/m 7,8 km/h (2 Bft) W-SW 253 0 min 0,000 mm 0,0 UV-I 0 W/m 18,1 C 18,2 C 12,9 km/h (3 Bft) 95,74 %
23.07.2016 23:36 18,8 C 96 % 1015,4 hPa 0,0 l/m 6,3 km/h (2 Bft) W 266 0 min 0,000 mm 0,0 UV-I 0 W/m 18,1 C 18,8 C 9,7 km/h (2 Bft) 97,87 %
23.07.2016 23:38 18,8 C 96 % 1015,4 hPa 0,0 l/m 7,1 km/h (2 Bft) S-SW 200 0 min 0,000 mm 0,0 UV-I 0 W/m 18,1 C 18,5 C 14,5 km/h (3 Bft) 100,00 %
23.07.2016 23:40 18,8 C 96 % 1015,4 hPa 0,0 l/m 7,2 km/h (2 Bft) S 189 0 min 0,000 mm 0,0 UV-I 0 W/m 18,1 C 18,4 C 12,9 km/h (3 Bft) 100,00 %
23.07.2016 23:42 18,8 C 96 % 1015,5 hPa 0,0 l/m 7,0 km/h (2 Bft) S-SW 213 0 min 0,000 mm 0,0 UV-I 0 W/m 18,1 C 18,5 C 11,3 km/h (2 Bft) 98,00 %
23.07.2016 23:44 18,8 C 96 % 1015,6 hPa 0,0 l/m 6,5 km/h (2 Bft) W-SW 244 0 min 0,000 mm 0,0 UV-I 0 W/m 18,1 C 18,8 C 11,3 km/h (2 Bft) 95,74 %
23.07.2016 23:46 18,8 C 96 % 1015,6 hPa 0,0 l/m 7,4 km/h (2 Bft) S 188 0 min 0,000 mm 0,0 UV-I 0 W/m 18,1 C 18,4 C 11,3 km/h (2 Bft) 97,87 %
23.07.2016 23:48 18,8 C 96 % 1015,7 hPa 0,0 l/m 6,3 km/h (2 Bft) SW 227 0 min 0,000 mm 0,0 UV-I 0 W/m 18,1 C 18,8 C 9,7 km/h (2 Bft) 97,87 %
23.07.2016 23:50 18,8 C 96 % 1015,6 hPa 0,0 l/m 5,9 km/h (2 Bft) SW 230 0 min 0,000 mm 0,0 UV-I 0 W/m 18,1 C 18,8 C 11,3 km/h (2 Bft) 96,00 %
23.07.2016 23:52 18,8 C 96 % 1015,6 hPa 0,0 l/m 6,1 km/h (2 Bft) SW 234 0 min 0,000 mm 0,0 UV-I 0 W/m 18,1 C 18,8 C 9,7 km/h (2 Bft) 100,00 %
23.07.2016 23:54 18,8 C 96 % 1015,6 hPa 0,0 l/m 5,0 km/h (1 Bft) SW 230 0 min 0,000 mm 0,0 UV-I 0 W/m 18,1 C 18,8 C 9,7 km/h (2 Bft) 100,00 %
23.07.2016 23:56 18,8 C 96 % 1015,7 hPa 0,0 l/m 4,9 km/h (1 Bft) SW 227 0 min 0,000 mm 0,0 UV-I 0 W/m 18,1 C 18,8 C 8,0 km/h (2 Bft) 97,87 %
23.07.2016 23:58 18,8 C 96 % 1015,7 hPa 0,0 l/m 5,7 km/h (1 Bft) W-SW 246 0 min 0,000 mm 0,0 UV-I 0 W/m 18,1 C 18,8 C 9,7 km/h (2 Bft) 100,00 %
_ Min-Zeit 06:14 16:26 20:08 - 00:20 - - - - - - 06:14 21:56 00:20 17:42
Minimum _ 16,8 C 51 % 1012,1 hPa - 0,0 km/h (0 Bft) - - - - - - 16,2 C 14,8 C 0,0 km/h (0 Bft) 91,30 %
_ Max-Zeit 16:16 01:18 23:48 21:42 21:42 - - 14:26 14:00 12:48 13:42 19:46 16:14 21:58 00:30
Maximum _ 28,8 C 96 % 1015,7 hPa 4,8 l/m 27,0 km/h
S-SW (4 Bft)
- - 4 min 0,559 mm 6,8 UV-I 898 W/m 20,9 C 28,7 C 40,2 km/h
O-SO (6 Bft)
100,00 %
Durchschnitt _ 22,2 C 79 % 1013,9 hPa #56,4 l/m 4,0 km/h (1 Bft) S - #9:10 h #4,242 mm 3,6 UV-I 426 W/m 18,1 C 22,1 C 7,1 km/h (2 Bft) 98,52 %